[{"header": {"dx": 0.06612293990616946, "dy": 0.0552356325346848, "nx": 98, "ny": 59, "la1": 35.046912555036876, "la2": 31.78801023549047, "lo1": -121.43107172385933, "lo2": -114.95102361305473, "refTime": "2026041115", "parameterCategory": 1, "parameterNumber": 2}, "data": [-2.89, -7.59, -10.43, -11.52, -13.19, -13.99, -13.99, -14.55, -14.47, -14.47, -13.44, -11.28, -11.87, -10.0, -9.2, -9.6, -9.6, -9.6, -7.59, -4.8, -0.0, -0.0, -0.0, -0.0, -4.8, -7.9, -8.93, -10.18, -10.84, -11.18, -11.18, -11.18, -10.73, -6.58, -5.75, -4.89, -4.47, -3.68, -5.37, -8.05, 8.49, 9.83, 11.62, 12.96, 14.3, 15.49, 17.43, 15.02, 11.0, 7.2, -0.0, -0.0, -0.0, -0.0, 4.1, 4.81, 6.0, 1.9, -0.0, -7.44, -12.72, -13.41, -12.96, -12.96, -12.96, -13.41, -0.0, 12.39, 12.27, 8.68, -4.95, -4.66, -0.0, -0.0, -0.0, -0.0, -0.0, -0.0, 13.86, 12.52, 10.28, 9.83, 9.83, 6.32, -0.0, -4.2, -8.0, -7.6, -7.07, -5.63, -5.98, -6.21, -6.44, -6.44, -4.65, -4.65, -6.71, -6.17, -0.0, -5.48, -7.59, -9.22, -10.43, -12.65, -14.9, -15.2, -14.75, -14.75, -13.41, -12.96, -11.03, -10.18, -10.4, -10.0, -9.2, -8.22, -7.59, -7.27, -5.4, -0.0, -0.0, -0.0, -0.0, -7.59, -7.27, -9.2, -9.6, -10.0, -11.62, -12.07, -11.62, -6.26, -6.07, -6.64, -7.2, -5.69, -6.01, -8.94, -9.83, 8.22, 11.6, 13.15, 15.49, 16.44, 19.67, 16.79, 13.59, 7.44, -0.0, -0.0, -0.0, -0.0, 3.96, 2.54, 1.66, -0.0, -0.0, -0.0, -0.0, -10.79, -12.96, -12.96, -12.96, -12.96, -13.41, 9.8, 10.75, -0.0, -11.7, -13.39, -10.12, -5.8, -5.8, -9.17, -11.2, -0.0, 13.86, 12.52, 10.28, 9.83, 9.83, 6.32, -0.0, -4.2, -8.0, -7.6, -7.07, -5.63, -5.98, -6.21, -6.44, -6.44, -4.65, -4.65, -6.71, -6.17, -2.81, -2.43, -5.48, -5.48, -6.6, -10.43, -13.59, -14.75, -15.2, -14.3, -12.52, -10.28, -11.62, -11.03, -10.18, -10.18, -10.6, -10.0, -7.9, -8.85, -5.0, -8.22, -0.0, -0.0, -0.0, -0.0, 9.83, -6.95, -6.95, -4.8, -0.0, -0.0, -0.0, 8.94, -6.71, -8.49, -8.05, -8.94, -9.39, -10.28, 0.0, 7.13, 12.36, 14.3, 16.68, 17.99, 20.12, 17.78, 11.16, 9.17, -0.0, -0.0, -0.0, -0.0, -0.0, -0.0, -1.33, -2.04, -0.96, 0.96, 2.2, -0.0, -9.17, -12.96, -12.58, -12.96, -9.17, 6.2, -0.0, -16.09, -16.54, -16.48, -13.02, -9.48, -7.19, -10.41, -11.87, -12.79, -13.86, -9.48, -7.27, 0.0, 0.0, 8.94, -8.94, -6.32, -7.2, -7.6, -7.44, -7.9, -9.8, -10.12, -8.05, -8.05, -5.4, -5.0, -4.4, -5.63, -2.81, -2.81, -2.89, -3.58, -0.0, -0.0, -4.81, -10.75, -13.99, -13.86, -12.07, -10.73, -12.07, -11.18, -10.6, -10.6, -11.03, -10.8, -5.4, -5.0, -5.0, -7.59, -0.0, -0.0, -0.0, 7.9, 7.27, 9.83, -0.0, -4.6, -0.0, -0.0, 3.68, 7.59, 8.4, -0.0, -0.0, 11.18, 0.0, 0.0, 5.98, 9.32, 12.51, 13.92, 14.19, 15.36, 15.2, 12.07, 11.87, 9.17, -0.0, -0.0, -0.0, -0.0, -0.0, -1.83, -3.73, -3.25, -2.2, -0.0, 3.14, 4.43, 3.04, -0.0, -12.96, -12.96, -4.1, -0.0, -0.0, -14.84, -16.99, -17.43, -16.66, -12.27, -9.66, -10.8, -11.71, -13.41, -15.65, -11.99, -8.18, -8.18, -8.0, -8.49, -8.05, -8.94, -8.0, -7.07, -6.17, -9.8, -11.06, -12.27, -11.16, -6.45, -2.6, -2.39, -3.49, -3.32, -5.31, -2.81, -2.89, -3.58, -0.0, -0.0, -0.0, -0.0, -4.66, -13.44, -12.07, -10.73, -11.62, -11.18, -10.73, -11.62, -11.03, -8.53, -8.53, -6.7, -5.6, -0.0, -0.0, -0.0, -0.0, 5.0, 5.0, 7.9, -0.0, -0.0, -4.6, -0.0, -0.0, 3.68, 6.2, 6.2, 7.9, 11.6, 7.0, 3.59, 8.6, 10.89, 11.68, 11.16, 11.6, 11.84, 12.07, 12.52, 12.52, 12.96, -0.0, -0.0, -5.6, -3.96, -4.65, -4.55, -5.27, -4.98, -2.63, -0.0, 2.54, 3.41, 4.28, 4.1, 2.2, -0.0, -4.98, -2.2, -2.63, -8.43, -16.12, -18.65, -18.26, -16.1, -10.82, -8.94, -11.28, -11.62, -13.88, -11.53, -7.87, -8.72, -8.24, -8.06, -7.6, -8.06, -6.32, -6.42, -8.05, -8.68, -10.75, -13.15, -10.8, -4.8, -0.0, -0.0, -1.47, -3.49, -6.4, -2.81, -2.81, -3.58, -0.0, -0.0, -0.0, -0.0, -0.0, -6.2, -10.8, -10.28, -11.18, -10.73, -11.18, -11.18, -11.03, -10.8, -8.53, -10.41, -10.41, -6.7, -0.0, -0.0, -0.0, -0.0, 5.2, 5.0, -0.0, -0.0, -0.0, -0.0, -0.0, -0.0, 7.44, 9.48, 9.17, 11.09, 17.43, 0.0, 0.0, 10.12, 12.27, 12.52, 12.52, 12.27, 11.62, 11.2, 11.87, 11.2, -0.0, -0.0, -5.6, -6.94, -7.78, -6.43, -6.43, -5.8, -2.91, -0.0, -0.0, 1.25, 2.13, 2.11, 2.11, 1.3, -1.72, -5.8, -6.9, -5.15, -6.8, -9.42, -11.0, -11.73, -13.28, -12.52, -10.41, -10.41, -9.2, -10.04, -8.4, -8.48, -8.33, -8.24, -8.06, -6.32, -7.9, -8.94, -9.39, -10.75, -11.9, -11.87, -8.22, -0.0, -0.0, -0.0, -0.0, -2.19, -6.4, -2.81, -2.81, -2.89, -0.0, -0.0, -0.0, -0.0, -0.0, -2.72, -5.4, -6.95, -10.73, -10.73, -12.07, -11.18, -12.07, -12.52, -12.52, -11.87, -12.3, -13.57, -12.27, -7.0, -0.0, -0.0, -0.0, -0.0, -0.0, 4.8, 4.8, -0.0, -0.0, -0.0, 5.2, 9.8, 11.44, 11.53, 9.8, 0.0, 0.0, 12.96, 12.72, 11.16, 10.43, 10.37, 9.77, 7.82, 4.48, 3.96, -0.0, -0.0, -0.0, -8.85, -10.41, -8.1, -7.19, -6.43, -3.14, -1.43, -0.0, -0.0, -0.0, 1.1, 2.24, 2.38, -0.0, -6.0, -9.48, -8.31, -6.4, -6.8, -11.38, -12.01, -13.59, -15.19, -14.75, -9.97, -9.13, -9.13, -8.3, -9.7, -10.28, -10.08, -7.59, -7.73, -10.12, -12.22, -12.52, -12.87, -12.27, -12.52, -0.0, 2.06, 1.47, -0.0, -0.0, -2.28, -6.2, -5.31, -2.81, -2.81, -0.0, -0.0, -0.0, -0.0, -0.0, -2.2, -1.84, -1.93, -4.6, -5.0, -8.85, -10.6, -12.07, -12.96, -12.96, -13.41, -9.48, -11.99, -11.99, -13.99, -13.59, -10.75, 15.65, 16.09, -0.0, -0.0, 5.4, -0.0, -0.0, 5.6, 7.9, 11.87, 12.3, 10.84, 10.4, 11.62, 0.0, 13.86, 11.38, 14.13, 14.39, 13.88, 7.24, 4.24, 3.82, 2.13, 1.91, -0.0, -0.0, 12.52, -11.2, -10.01, -6.7, -5.99, -3.82, -2.62, -1.16, -2.54, -1.38, -0.0, 2.89, 2.72, -0.0, -7.13, -12.39, -13.44, -13.88, -13.19, -13.59, -15.18, -16.09, -15.2, -14.31, -12.27, -12.27, -12.79, -13.99, -12.07, -10.6, -9.08, -8.53, -9.48, -11.9, -13.19, -13.15, -11.21, -10.0, -5.37, -0.0, 1.2, 1.05, -0.0, -0.0, -2.28, -8.31, -5.31, -2.81, -2.81, -0.0, -0.0, -0.0, -0.0, -0.0, -2.13, -3.68, -1.91, -4.1, -4.1, -5.6, -11.2, -11.6, -13.41, -13.41, -9.48, -0.0, -0.0, -6.2, -10.12, -11.6, -11.18, -9.83, 13.86, -0.0, -0.0, 9.8, -0.0, -0.0, 9.8, 8.85, 11.03, 11.18, 11.18, 10.28, 10.28, 12.96, 14.75, 14.75, 12.52, 11.62, 10.96, 3.96, 2.2, 3.6, 3.96, 4.98, 5.4, 12.07, 12.07, -12.07, -10.4, -7.26, -4.58, -3.68, -2.52, -2.52, -2.91, -1.83, -0.0, 2.35, 1.89, -0.0, -7.0, -14.3, -13.86, -13.86, -13.41, -14.3, -14.75, -13.88, -14.03, -12.79, -11.91, -13.67, -14.39, -14.79, -14.3, -9.96, -9.08, -8.22, -8.53, -11.12, -12.3, -10.32, -8.43, -5.36, -1.32, -0.0, -0.0, 1.04, 1.28, -0.0, -2.71, -8.31, -5.15, -5.31, -2.81, -0.0, -0.0, -0.0, -0.0, -0.0, -1.83, -3.96, -4.1, -4.48, -6.0, -9.8, -9.48, -10.12, -14.75, -14.75, -13.41, -9.17, -0.0, -0.0, -10.12, -14.3, -11.62, -9.39, 10.73, 14.75, 14.3, 14.75, -0.0, 15.65, 13.86, 8.53, 10.0, 10.73, 9.39, 11.62, 12.96, 11.6, 11.6, 11.62, 10.28, 10.28, 10.0, 4.32, 3.82, 4.55, 4.1, 5.6, 6.21, 10.4, 0.0, -10.4, -11.62, -11.28, -8.22, -5.2, -3.68, -4.55, -3.93, -0.0, -0.0, -0.0, -0.0, -0.0, -14.79, -13.86, -12.96, -12.96, -13.41, -13.88, -13.99, -14.3, -12.96, -11.62, -11.62, -11.98, -14.9, -12.33, 16.54, -9.48, -7.59, -4.6, -4.4, -7.27, -9.2, -8.23, -5.59, -3.17, -2.06, -0.89, -1.16, -0.0, 1.39, -0.0, -4.6, -9.8, -7.13, -5.31, -2.89, -2.89, -0.0, -0.0, -0.0, -0.0, -0.0, -1.83, -4.38, -4.38, -5.15, -10.12, -6.4, -11.06, -15.65, -15.65, -16.99, 17.43, 17.43, 16.99, 14.75, -14.75, -12.96, -10.28, 10.28, 12.96, 13.86, 12.96, 12.96, 12.07, 11.18, 11.18, 12.07, 10.4, 8.22, 12.07, 13.15, 11.9, 11.16, 11.03, 11.18, 10.73, 8.23, 6.7, 5.0, 3.07, 2.42, 3.97, 4.9, 4.48, 12.07, -10.8, -12.52, -12.3, -10.35, -7.02, -4.08, -6.2, -4.66, -2.81, -0.0, -0.0, -0.0, -16.09, -16.12, -15.34, -12.96, -12.52, -12.96, -13.88, -13.88, -13.86, -13.15, -12.71, -12.07, -12.52, -13.41, -15.2, 16.09, 15.2, 12.96, 11.62, 7.59, 10.28, -0.0, -5.46, -3.8, -4.21, -4.05, -2.33, -2.95, -0.0, -0.0, -0.0, -5.95, -9.8, -7.13, -5.31, -5.48, -2.89, -2.89, -0.0, -0.0, -0.0, -0.0, -0.0, -2.28, -2.43, -2.81, -3.25, -3.96, -5.6, -0.0, -0.0, -0.0, -0.0, 16.09, 15.65, 16.09, 13.41, 12.96, 12.52, 5.69, 7.9, 10.28, 10.73, 11.62, 11.62, 9.83, 10.18, 10.28, 9.75, 5.4, 8.85, 11.99, 11.53, 11.16, 10.04, 10.0, 7.27, 5.63, 4.8, -0.0, -0.0, -0.0, 3.55, 4.99, 4.98, -0.0, -7.44, -3.01, -0.0, -3.44, -4.39, -3.32, -3.93, -5.02, -2.09, -0.0, -0.0, -0.0, -0.0, -12.64, -18.21, -17.64, -15.53, -14.11, -12.96, -12.96, -12.96, -13.01, -12.58, -12.89, -12.42, -13.23, -13.15, -0.0, 3.96, 14.75, 12.14, 12.96, 11.03, 9.83, -0.0, -4.0, -6.14, -6.87, -6.58, -5.0, -3.98, -2.28, -4.6, -7.59, -8.66, -8.66, -7.36, -5.48, -5.48, -2.89, -2.89, -0.0, -0.0, -0.0, -0.0, -0.0, -2.43, -2.5, -3.07, -0.0, -0.0, -0.0, -0.0, -0.0, 9.48, 13.41, 13.41, 13.41, 13.41, 13.41, 13.01, 13.01, 11.71, 9.83, 10.73, 11.62, 11.62, 11.18, 10.28, 9.83, 9.75, 5.0, 8.22, 8.53, 10.41, 11.2, 8.53, 5.7, 3.11, 2.39, -0.0, -2.1, -1.58, -0.0, 3.39, 4.3, 5.4, 1.55, -7.58, -4.6, 1.13, 3.07, -0.0, -1.64, -3.98, -3.25, -2.28, -2.04, -1.72, -0.89, -0.0, -0.0, -0.0, -4.82, -21.46, -16.96, -15.2, -12.35, -11.84, -12.27, -13.67, -13.57, -12.72, -11.62, -8.22, -3.68, 3.04, 6.0, 9.17, 12.27, 14.3, 12.52, 7.59, -0.0, -7.44, -8.55, -8.24, -7.59, -7.59, -5.4, -7.27, -7.59, -8.66, -8.66, -7.13, -7.36, -5.48, -5.31, -5.31, -2.81, -0.0, -0.0, -0.0, -0.0, -0.0, -0.0, -0.0, -0.0, -0.0, -0.0, -0.0, 4.52, 6.4, 10.12, 14.75, 15.65, 15.65, 15.65, 14.3, 14.3, 13.86, 12.96, 11.62, 11.62, 12.07, 10.73, 10.28, 9.83, 8.91, 9.2, 9.2, 10.18, 11.03, 10.6, 10.0, 7.9, -0.0, -0.0, -0.0, -1.93, -2.1, -0.0, 1.52, 2.95, 4.24, -2.28, -7.96, -5.68, 1.33, 7.58, 4.52, -3.53, -4.49, -3.85, -2.2, -2.28, -2.33, -1.57, -1.45, -0.0, 2.5, 7.49, 9.6, -7.4, -13.59, -11.62, -10.73, -14.75, -15.49, -14.42, -13.7, -10.43, -7.44, -0.0, 3.96, 6.4, 6.44, 9.48, 10.99, 11.09, 7.9, 6.17, -0.0, -9.55, -8.93, -8.93, -9.2, -9.3, -7.27, -6.44, -7.13, -7.13, -7.13, -7.36, -7.36, -5.31, -5.31, -5.31, -2.81, -0.0, -0.0, -0.0, -0.0, -0.0, -0.0, -0.0, -0.0, -0.0, 3.16, 3.79, 8.43, 10.75, 13.99, 16.09, 16.09, 16.54, 16.09, 15.65, 15.2, 14.75, 13.86, 12.52, 12.07, 10.73, 10.28, 9.83, 10.28, 9.39, 11.18, 10.28, 10.73, 11.62, 10.73, 9.6, 4.2, -0.0, -0.0, -0.0, -1.75, -0.0, -0.0, 3.25, 3.65, -0.0, -5.72, -5.59, 2.39, 5.69, 1.04, -5.08, -5.63, -4.72, -3.82, -3.82, -2.37, -2.37, -1.2, -0.0, 2.33, 5.08, 6.99, 9.11, 6.43, -7.59, -13.86, -15.34, -15.27, -13.99, -12.52, -8.68, -0.0, 6.2, 8.85, 10.6, 10.28, 9.77, 10.18, 9.16, 8.22, 7.15, 6.7, -0.0, -7.27, -8.03, -8.23, -8.94, -6.71, -6.71, -3.36, -6.2, -7.13, -7.36, -7.36, -7.36, -7.36, -7.36, -5.31, -2.81, -0.0, -0.0, -0.0, -0.0, -0.0, -0.0, -0.0, -0.0, 3.33, 6.14, 5.98, 9.66, 11.38, 13.76, 15.69, 16.54, 16.54, 16.09, 15.65, 15.2, 15.2, 14.99, 13.67, 11.62, 10.28, 8.94, 9.83, 9.33, 11.18, 10.73, 10.28, 10.73, 10.73, 9.83, 6.64, -0.0, -0.0, -0.0, -2.06, -1.67, -0.0, 1.75, 2.83, -0.0, -3.15, -7.07, -6.01, -1.93, -2.82, -4.08, -4.99, -5.95, -4.8, -5.95, -4.6, -4.23, -1.84, -0.0, 3.07, 1.61, 3.0, 7.95, 12.22, 8.53, 7.58, 5.99, 2.57, -3.69, -10.75, -7.0, -0.0, 7.2, 12.27, 12.3, 10.73, 9.83, 9.55, 8.55, 7.59, 6.87, 7.59, 4.4, -0.0, -2.02, -5.7, -7.59, -5.0, -5.0, -0.0, -0.0, -6.4, -5.15, -5.15, -5.31, -7.36, -7.59, -8.58, -6.4, -2.89, -0.0, -0.0, -0.0, -0.0, -0.0, -0.0, -0.0, -0.0, 3.33, 6.14, 9.66, 9.66, 11.38, 13.39, 16.09, 16.09, 16.09, 16.09, 15.69, 16.48, 16.66, 15.87, 13.57, 8.67, 8.94, 9.39, 10.73, 10.28, 9.75, 10.41, 8.67, 9.83, 8.06, 8.4, 4.0, -0.0, -0.0, -0.0, -0.0, -0.0, 2.28, 1.84, 1.33, -0.0, -5.63, -8.43, -8.23, -7.9, -5.2, -4.15, -5.29, -5.06, -5.06, -6.14, -4.94, -2.83, -1.26, -0.0, -0.0, 4.87, 10.52, 14.76, 12.56, 9.7, 9.82, 9.73, 10.3, 8.28, 3.69, 3.69, 3.79, 6.6, 7.13, 9.17, 7.27, 9.83, 8.58, 8.38, 8.38, 7.9, 6.14, 1.93, 1.76, -0.0, -0.0, -0.0, -0.0, 11.53, 4.38, -0.0, -3.47, -2.72, -2.72, -4.52, -7.36, -7.59, -6.6, -3.58, -0.0, -0.0, -0.0, -0.0, -0.0, -0.0, -0.0, -0.0, 4.01, 3.9, 7.2, 8.05, 9.12, 11.06, 15.27, 16.54, 16.54, 16.54, 16.54, 16.91, 16.6, 16.96, 15.27, 11.87, 8.24, 8.48, 9.2, 10.18, 9.75, 9.33, 8.4, 8.49, 8.49, 8.0, 4.2, 2.83, 2.83, 2.97, 2.97, 2.28, 2.39, 1.93, 1.62, -0.0, -3.65, -5.9, -7.27, -7.59, -6.71, -5.75, -4.8, -4.6, -4.4, -5.21, -5.53, -5.24, -5.31, -3.65, -0.0, 9.77, 14.67, 17.75, 14.55, 11.86, 10.87, 10.11, 12.08, 10.77, 7.0, 4.05, 3.47, 3.81, 4.93, 4.15, 2.02, 3.82, 7.27, 7.59, 8.22, 6.98, 5.06, 1.62, 1.52, 3.68, 3.53, 2.19, 2.19, 12.39, 12.39, 7.69, -0.0, -2.72, -2.72, -2.35, -4.52, -5.48, -8.85, -6.6, -3.69, -0.0, -0.0, -0.0, -0.0, -0.0, -0.0, 3.07, 3.69, 4.95, 3.9, 5.81, 9.17, 10.75, 14.79, 13.15, 16.99, 17.43, 16.09, 16.91, 16.6, 16.96, 16.54, 14.84, 11.87, 8.8, 8.15, 8.43, 10.0, 9.55, 9.97, 10.28, 9.83, 9.33, 6.95, 5.46, 5.21, 5.21, 5.21, 4.4, 1.93, 1.62, 1.62, -0.0, -0.0, -1.93, -2.6, -2.19, -5.0, -4.8, -4.8, -5.7, -5.2, -5.82, -6.39, -6.79, -7.76, -9.54, 12.07, 13.44, 16.12, 21.08, 19.25, 15.83, 13.55, 12.82, 10.75, 10.25, 8.0, 4.52, 3.47, 4.38, 4.93, 3.68, 2.02, 3.98, 5.75, 7.9, 6.44, 6.2, 4.05, 1.69, -0.0, 2.93, 5.77, 6.45, 6.45, 13.59, 12.87, 11.88, 7.69, -0.0, -0.0, -0.0, -0.0, -2.43, -5.48, -6.6, -6.8, -3.79, -0.0, -0.0, -0.0, -0.0, -0.0, -0.0, 4.81, 5.37, 3.9, 7.2, 9.67, 13.76, 13.76, 15.69, 15.61, 16.66, 16.99, 17.43, 17.43, 17.2, 17.26, 16.82, 15.05, 12.58, 11.03, 9.85, 8.33, 8.9, 9.34, 9.39, 9.39, 8.87, 10.41, 8.18, 6.95, 6.64, 6.64, 4.2, 3.49, 2.97, 1.54, 1.11, -0.0, -0.0, -0.0, -1.69, -4.8, -4.6, -5.7, -6.14, -6.14, -6.52, -6.45, -7.58, -8.91, -9.75, 0.0, 12.45, 16.04, 22.8, 23.2, 18.56, 16.9, 15.93, 14.84, 8.05, 8.16, 7.38, 7.54, 5.48, 3.25, 2.93, 2.19, 3.82, 4.6, 6.98, 5.52, 4.8, 5.77, 4.58, 1.91, 3.32, 7.02, 7.44, 7.44, 13.67, 13.67, 13.15, 11.88, 8.31, -0.0, -0.0, -0.0, -0.0, -2.98, -2.89, -6.8, -3.79, -0.0, -0.0, -0.0, -0.0, -0.0, -0.0, 3.69, 5.37, 7.4, 9.92, 12.87, 14.57, 14.57, 14.94, 15.77, 16.19, 17.64, 17.64, 17.43, 17.43, 17.43, 16.99, 16.54, 14.75, 12.88, 11.57, 10.28, 9.39, 9.83, 9.83, 9.83, 9.36, 10.58, 8.8, 7.87, 7.51, 6.64, 6.32, 4.0, 3.32, 2.97, 1.39, 1.11, 1.45, -0.0, -3.98, -3.87, -4.88, -5.46, -6.95, -7.87, -7.67, -6.87, -7.21, -7.87, -10.73, 8.22, 12.79, 15.15, 20.98, 20.82, 18.68, 16.82, 12.01, 16.99, 12.87, 10.18, 9.39, 8.29, 5.99, 2.02, 2.2, 1.91, 3.39, 3.11, 4.6, 5.1, 5.32, 6.63, 7.28, 3.68, 5.4, 7.54, 7.44, 7.44, 13.72, 13.72, 13.32, 13.32, 11.88, 8.31, 3.36, -0.0, -0.0, -0.0, -0.0, -2.98, -3.69, -3.79, -0.0, -0.0, -0.0, -0.0, -0.0, 4.01, 7.6, 9.92, 11.38, 12.87, 14.57, 15.33, 14.95, 14.79, 15.69, 16.12, 16.76, 17.26, 17.26, 17.3, 16.86, 16.99, 15.65, 13.86, 12.52, 11.18, 10.25, 9.81, 9.36, 9.36, 8.92, 7.81, 9.75, 9.13, 8.4, 7.15, 6.01, 5.1, 4.37, 2.83, 2.83, 1.39, 2.39, -0.0, -4.8, -5.46, -4.34, -4.98, -6.64, -6.64, -6.64, -6.01, -6.01, -6.14, -2.02, -0.0, 6.44, 11.2, 17.1, 20.12, 0.0, 4.52, 3.51, 3.59, 12.33, 15.18, 10.75, 5.99, 4.37, 2.56, 3.65, 3.06, 2.71, 3.36, 4.92, 5.75, 6.2, 7.41, 8.32, 8.53, 6.97, 6.97, 6.97, 6.97, 13.72, 13.72, 13.72, 13.44, 13.32, 11.88, 8.58, 3.47, 2.89, 2.5, -0.0, -0.0, -0.0, -0.0, -0.0, -0.0, -0.0, -0.0, -0.0, 5.23, 7.6, 9.66, 10.75, 11.87, 12.92, 13.61, 13.96, 15.59, 15.19, 15.27, 15.9, 15.9, 16.05, 16.41, 16.41, 16.44, 15.99, 14.66, 12.88, 11.57, 10.68, 10.25, 9.81, 8.91, 8.02, 7.81, 9.33, 8.72, 8.0, 6.79, 6.44, 6.01, 4.37, 2.69, 2.46, 2.46, 2.04, 1.28, -3.39, -6.32, -5.82, -4.44, -3.49, -4.96, -5.59, -5.46, -4.66, -4.2, -4.05, -1.14, -0.0, 3.6, 10.0, -16.99, -11.18, -6.95, 0.0, 0.0, 3.42, 15.59, 8.43, 1.77, 1.25, 2.11, 3.81, 3.55, 4.01, 4.13, 6.24, 7.54, 7.82, 8.02, 8.97, 9.53, 8.82, 8.22, 7.26, 7.26, 13.75, 13.75, 13.75, 13.75, 13.44, 13.44, 11.88, 8.58, 2.89, 2.98, 2.5, 2.57, -0.0, -0.0, -0.0, -0.0, -0.0, -0.0, -0.0, 5.09, 9.17, 10.19, 11.38, 10.43, 10.75, 11.7, 13.61, 14.51, 15.59, 15.19, 14.79, 15.47, 15.61, 15.61, 15.61, 15.71, 15.99, 15.11, 13.33, 11.55, 10.23, 9.79, 10.28, 10.28, 8.94, 7.92, 9.33, 8.91, 7.67, 7.67, 6.98, 6.63, 5.31, 3.8, 2.33, 2.33, 1.75, 1.94, -0.0, -4.6, -6.01, -4.37, -2.06, -4.0, -5.72, -4.98, -3.87, -3.98, -3.11, -3.87, -2.49, 11.1, 18.78, 15.8, -16.79, -14.75, 0.0, 0.0, 6.6, 15.65, -0.0, -0.0, -0.0, 2.04, 3.81, 4.47, 4.8, 6.24, 7.1, 7.93, 8.02, 8.64, 9.42, 9.89, 9.17, 9.3, 8.22, 8.22, 13.75, 13.75, 13.75, 13.75, 13.75, 13.53, 13.44, 12.27, 8.85, 2.98, 5.64, 5.64, 3.07, 3.07, -0.0, -0.0, -0.0, -0.0, -0.0, 5.09, 8.93, 9.42, 10.19, 11.7, 11.06, 12.22, 13.26, 14.51, 14.51, 14.13, 15.61, 15.2, 14.65, 14.65, 15.61, 15.71, 15.71, 15.55, 14.22, 12.0, 10.28, 9.83, 9.83, 10.28, 9.83, 9.35, 8.19, 7.84, 8.25, 8.4, 8.0, 8.55, 6.63, 3.6, 2.33, 2.33, 1.2, -0.0, -0.0, -0.0, -2.39, -4.71, -2.17, -4.83, -5.46, -4.56, -3.61, -2.49, -1.28, -4.6, -0.0, 9.17, 13.62, 17.28, 10.0, -19.22, -18.33, -0.0, -0.0, -0.0, -4.66, -2.15, -0.0, 3.42, 4.81, 5.0, 5.35, 6.67, 6.72, 7.51, 8.76, 8.6, 10.12, 10.41, 9.17, 8.82, 8.82, 8.82, 13.77, 13.77, 13.75, 13.75, 13.77, 13.77, 13.77, 13.88, 12.65, 6.6, 5.64, 5.64, 5.81, 3.07, 3.07, -0.0, -0.0, -0.0, -0.0, 4.95, 8.68, 8.93, 12.01, 10.19, 11.7, 11.38, 12.57, 13.26, 14.51, 14.51, 14.75, 15.19, 14.79, 15.49, 15.07, 15.07, 15.61, 15.71, 15.55, 13.33, 11.18, 10.28, 9.83, 9.83, 10.28, 10.12, 9.24, 8.25, 8.0, 8.4, 8.4, 8.24, 6.95, 5.46, 3.52, 2.33, 1.14, -0.0, -0.0, 1.11, 3.65, -0.0, -2.17, -4.2, -5.21, -4.2, -3.25, -2.33, -1.02, -1.45, -0.0, 2.54, 7.43, 12.35, 15.82, 7.07, -20.12, -17.81, -11.38, -3.96, -3.25, -0.0, 1.26, 3.0, 4.06, 5.72, 6.08, 6.48, 7.82, 7.93, 8.72, 9.53, 11.03, 10.62, 8.82, 8.94, 8.82, 8.82, 13.77, 13.77, 13.77, 13.77, 13.77, 13.77, 13.77, 13.77, 13.75, 11.8, 9.12, 9.12, 8.05, 5.64, 3.07, 3.07, -0.0, -0.0, 3.79, 4.95, 4.95, 8.68, 11.38, 9.92, 11.7, 11.7, 11.38, 12.92, 13.26, 14.13, 14.75, 14.75, 15.19, 15.19, 15.11, 15.11, 15.69, 16.15, 16.15, 15.55, 13.86, 12.07, 10.68, 9.79, 10.12, 9.66, 9.36, 8.55, 8.25, 8.25, 8.4, 8.3, 7.68, 5.78, 4.4, 2.44, 2.33, -0.0, -0.0, 1.52, 3.7, 4.2, -0.0, -4.0, -4.36, -3.21, -3.08, -3.61, -2.13, -0.0, -0.0, -0.0, 2.72, 7.36, 11.4, 16.07, 13.4, -18.33, -15.61, -6.45, -2.06, -0.0, 2.18, 3.81, 4.17, 5.72, 7.19, 7.78, 7.82, 8.32, 8.85, 9.96, 11.03, 11.21, 10.23, 9.17, 9.58, 9.58, 13.86, 13.86, 13.77, 13.77, 13.77, 13.77, 13.77, 13.77, 14.23, 13.57, 11.8, 9.12, 9.12, 7.82, 5.64, 2.98, 3.07, 3.79, 3.79, 3.79, 8.68, 8.68, 8.68, 9.39, 9.66, 11.38, 11.38, 12.87, 14.18, 14.18, 14.79, 15.2, 14.75, 15.19, 15.52, 15.11, 15.11, 16.12, 16.58, 15.99, 14.66, 12.88, 10.7, 9.13, 9.2, 8.63, 9.2, 9.08, 8.67, 8.67, 8.4, 8.3, 7.64, 6.05, 4.5, 3.36, 2.17, 1.2, 0.8, 1.6, 4.0, 4.44, -1.22, -4.2, -3.88, -3.53, -3.77, -7.27, -6.14, -1.69, -0.0, -2.37, -2.45, 3.68, 9.34, 13.12, 18.6, 14.85, -10.43, -9.3, -1.52, 1.1, 3.92, 5.16, 5.78, 6.92, 7.62, 8.38, 8.97, 8.61, 8.85, 9.36, 10.66, 11.39, 11.21, 10.62, 10.73, 10.73, 13.86, 13.86, 13.86, 13.86, 13.86, 13.86, 13.86, 14.3, 14.3, 14.3, 13.99, 12.16, 9.39, 8.05, 8.05, 5.64, 5.64, 5.64, 6.8, 6.8, 7.0, 7.0, 7.0, 9.39, 9.39, 11.06, 11.06, 11.38, 13.23, 14.18, 14.18, 14.79, 15.2, 14.79, 14.79, 15.11, 15.11, 16.12, 16.12, 16.15, 15.27, 13.09, 11.03, 9.04, 8.15, 8.63, 9.6, 10.2, 10.2, 8.24, 8.3, 7.95, 7.31, 6.51, 5.09, 3.61, 2.33, 2.23, 1.54, 2.47, 4.0, 2.83, -1.16, -3.81, -4.6, -2.31, -0.97, -5.29, -9.13, -4.6, -0.0, -0.0, -0.0, 5.8, 14.3, 16.35, 17.5, 16.79, 14.39, 10.75, -0.0, 1.11, 5.46, 6.78, 6.94, 7.78, 7.78, 9.02, 9.13, 8.83, 7.78, 9.17, 10.12, 10.37, 11.53, 11.31, 11.12, 11.12, 13.86, 13.86, 13.86, 13.86, 13.86, 13.86, 13.86, 14.3, 14.3, 14.3, 14.3, 13.03, 10.75, 8.05, 7.2, 7.0, 4.81, 5.64, 5.64, 5.64, 7.0, 7.0, 9.39, 9.39, 9.39, 11.06, 10.75, 11.06, 11.38, 13.8, 13.8, 14.39, 14.39, 14.79, 15.49, 14.79, 15.11, 15.11, 16.12, 16.12, 15.27, 13.57, 11.44, 8.99, 7.03, 8.8, 11.03, 11.77, 11.31, 10.12, 9.3, 7.81, 7.61, 6.23, 5.39, 4.23, 3.39, 2.6, 2.41, 2.39, 3.06, 2.57, -0.0, -3.3, -4.2, -3.11, -0.79, -0.0, -5.21, -6.95, -1.58, 1.33, 6.43, 11.88, 14.42, 16.96, 17.43, 15.16, 15.99, 14.29, 8.68, -0.0, 3.65, 6.85, 8.51, 8.31, 8.87, 9.8, 7.69, 5.46, 5.28, 7.44, 10.18, 10.62, 10.48, 11.31, 10.62, 10.62, 13.41, 13.41, 13.86, 13.86, 13.86, 13.86, 13.86, 14.3, 14.3, 14.75, 14.75, 14.3, 12.16, 9.12, 8.05, 7.0, 7.0, 7.0, 7.0, 8.05, 8.05, 8.05, 8.05, 9.39, 9.39, 11.06, 10.75, 10.43, 10.75, 13.42, 13.8, 13.42, 13.99, 14.38, 14.79, 15.07, 15.11, 15.11, 15.11, 15.52, 15.11, 14.11, 12.04, 9.96, 8.48, 9.63, 12.14, 12.56, 12.79, 11.58, 10.23, 8.11, 7.59, 5.94, 5.46, 4.6, 3.98, 2.71, 2.46, 2.41, 2.28, 2.23, -0.0, -4.34, -4.34, -4.71, -3.32, -0.0, 1.69, -2.49, -4.4, -0.0, 5.6, 11.77, 16.91, 18.14, 18.14, 15.2, 13.44, 16.53, 11.35, -0.0, 1.68, 6.8, 7.0, 7.98, 8.68, 5.64, 2.28, -0.0, -0.0, 4.98, 8.59, 10.37, 10.62, 10.62, 10.73, 10.73, 13.41, 13.41, 13.41, 13.86, 13.86, 13.86, 13.86, 14.3, 14.3, 14.75, 14.75, 14.75, 14.66, 11.06, 8.05, 7.0, 7.0, 7.2, 7.2, 8.93, 8.93, 10.05, 9.77, 9.77, 11.06, 11.06, 10.75, 10.12, 11.38, 12.65, 13.42, 13.8, 14.39, 13.99, 14.38, 15.07, 15.07, 14.79, 15.11, 15.11, 15.11, 14.53, 12.87, 10.7, 9.85, 10.78, 12.58, 13.99, 12.79, 11.2, 9.34, 8.0, 7.23, 5.98, 5.52, 5.15, 4.6, 3.39, 2.46, 2.42, 2.41, 2.44, -2.33, -3.45, -4.34, -5.1, -4.83, -2.58, 1.45, 1.76, -1.93, -2.49, 2.45, 10.3, 14.88, 17.85, 15.69, 12.35, 12.86, 14.42, 8.4, -2.79, -0.0, 2.65, 4.54, 6.52, 6.69, 6.34, 2.81, -0.0, -0.0, 3.14, 9.17, 10.55, 10.41, 10.41, 10.8, 10.8, 13.41, 13.41, 13.41, 13.86, 13.86, 13.86, 13.86, 14.3, 14.3, 14.75, 14.75, 14.75, 14.75, 14.64, 11.06, 8.05, 7.0, 8.68, 7.76, 9.35, 8.93, 8.93, 10.05, 9.77, 9.49, 9.49, 9.49, 10.12, 9.8, 12.52, 12.65, 13.42, 14.39, 15.27, 15.47, 14.79, 15.07, 14.79, 14.79, 15.11, 15.11, 15.41, 13.7, 11.64, 10.35, 11.21, 12.58, 13.15, 13.15, 10.73, 8.52, 7.72, 7.23, 5.98, 5.52, 5.46, 4.66, 3.82, 2.6, 2.42, 2.33, 0.94, -1.47, -2.83, -4.12, -3.91, -4.26, -3.8, -0.0, 3.98, 2.02, -0.0, 2.82, 8.31, 13.59, 20.04, 12.27, 11.45, 12.07, 13.15, -4.01, -5.98, -3.16, -0.0, 4.67, 8.87, 11.77, 10.89, 10.12, 9.17, 8.85, 10.04, 11.2, 11.6, 11.85, 10.94, 10.4, 10.4, 13.41, 13.41, 13.41, 13.41, 13.86, 13.86, 13.86, 14.3, 14.3, 14.75, 14.75, 15.2, 14.75, 14.68, 12.65, 9.77, 8.68, 7.76, 9.09, 9.35, 9.35, 10.59, 10.3, 10.3, 10.75, 9.49, 9.49, 10.43, 10.43, 11.52, 12.65, 13.59, 13.99, 15.04, 15.47, 15.47, 14.79, 15.07, 15.49, 15.69, 15.69, 15.84, 14.56, 12.51, 11.21, 11.28, 12.14, 13.15, 13.15, 11.14, 8.93, 7.81, 7.27, 6.31, 6.23, 5.46, 4.87, 3.82, 3.07, 2.33, 1.05, -0.0, -0.0, -3.8, -3.4, -3.4, -3.27, -2.83, -0.0, 1.69, 3.87, 2.82, 3.82, 6.0, 13.36, 18.63, 14.77, 12.37, 13.86, -14.3, -14.39, -9.39, -2.72, 2.79, 9.42, 12.33, 13.84, 13.39, 12.11, 11.72, 11.61, 12.07, 12.07, 12.52, 12.52, 11.62, 11.21, 11.21, 13.41, 13.41, 13.41, 13.41, 13.86, 13.86, 13.86, 14.3, 14.75, 14.75, 15.2, 15.2, 15.2, 14.75, 14.69, 12.37, 8.83, 8.83, 8.83, 10.18, 10.47, 10.47, 10.3, 10.3, 10.02, 10.75, 10.75, 9.22, 10.43, 10.75, 13.03, 13.59, 13.59, 13.97, 15.04, 15.04, 15.47, 15.61, 16.05, 16.15, 16.15, 15.71, 14.56, 12.85, 11.64, 11.44, 12.08, 12.94, 12.72, 11.97, 9.27, 8.32, 7.28, 6.62, 6.23, 5.9, 4.87, 3.82, 3.07, 1.81, 1.16, -0.0, -0.0, -2.54, -3.8, -3.8, -3.4, -2.98, -1.11, 1.16, 3.45, 3.68, 5.8, 6.9, 12.02, 11.96, 13.34, 12.02, 11.7, -15.65, -15.2, -11.38, -2.72, 4.54, 10.47, 12.46, 13.71, 12.56, 11.62, 11.84, 11.62, 11.18, 11.51, 11.18, 11.71, 12.0, 12.02, 12.02, 13.41, 13.41, 13.41, 13.41, 13.86, 13.86, 14.3, 14.3, 14.75, 14.75, 15.2, 15.2, 15.2, 14.75, 14.75, 14.9, 10.75, 8.83, 9.89, 10.18, 10.18, 10.47, 10.47, 11.38, 11.06, 11.68, 10.75, 10.43, 10.43, 10.75, 13.03, 13.03, 13.19, 13.56, 13.56, 14.61, 15.18, 15.18, 15.97, 15.97, 15.61, 15.71, 15.27, 13.15, 11.84, 11.44, 11.84, 12.51, 12.6, 11.6, 9.81, 7.96, 7.28, 6.62, 6.62, 5.9, 5.39, 3.82, 3.07, 1.81, 0.57, 0.59, -0.0, -2.09, -3.17, -4.0, -3.6, -2.98, -1.11, -0.0, 1.76, 2.23, 6.9, 8.05, 6.6, 4.81, 7.98, 11.73, 14.2, 15.17, -0.0, -7.0, -0.0, 6.4, 9.8, 10.59, 11.12, 11.21, 11.13, 11.57, 11.62, 11.55, 11.28, 11.09, 10.48, 11.3, 12.07, 12.07, 12.96, 12.96, 13.41, 13.41, 13.86, 13.86, 14.3, 14.3, 14.75, 14.75, 15.2, 15.2, 15.2, 15.2, 14.75, 14.68, 10.75, 9.89, 9.89, 10.18, 10.18, 10.18, 11.38, 11.38, 12.02, 11.68, 11.68, 11.52, 11.52, 10.75, 12.16, 13.03, 13.19, 13.56, 13.56, 14.31, 14.31, 15.08, 15.53, 15.97, 15.61, 15.61, 14.84, 12.83, 10.22, 10.68, 11.4, 11.99, 12.18, 11.38, 10.18, 9.04, 7.96, 6.95, 6.62, 5.9, 5.1, 3.82, 2.46, 1.74, 0.57, -0.0, -0.0, -1.07, -3.6, -4.0, -2.83, -2.69, -1.11, -0.0, -0.0, 2.23, 5.6, 5.48, -3.58, -2.81, 5.18, 11.13, 16.17, 18.55, 16.58, 9.44, 6.0, 8.1, 8.85, 10.73, 11.39, 10.7, 11.4, 12.01, 12.07, 12.0, 11.71, 11.5, 10.41, 10.48, 10.8, 11.45, 12.96, 12.96, 13.41, 13.41, 13.86, 13.86, 14.3, 14.3, 14.75, 14.75, 15.2, 15.2, 15.2, 15.15, 15.2, 14.75, 13.99, 10.75, 10.75, 11.06, 11.06, 10.18, 11.88, 12.22, 12.73, 13.2, 12.27, 12.27, 11.52, 11.52, 12.16, 12.65, 13.19, 14.18, 14.31, 14.31, 14.19, 15.08, 15.08, 15.53, 15.53, 15.97, 14.64, 11.95, 9.6, 10.52, 11.4, 11.62, 11.99, 11.12, 10.56, 9.4, 8.3, 6.95, 6.3, 5.6, 5.1, 3.82, 2.56, 1.74, 0.6, -0.0, -0.0, -0.0, -2.4, -4.0, -3.35, -1.75, -0.94, -0.0, -0.0, -0.0, 4.75, 6.95, -0.0, -15.2, 14.3, 15.27, 16.6, 16.73, 14.53, 11.76, 10.77, 9.48, 10.79, 11.85, 12.08, 11.84, 11.78, 12.44, 12.52, 12.52, 12.39, 11.87, 11.87, 10.8, 10.48, 10.8, 12.96, 12.96, 12.96, 13.41, 13.86, 13.86, 14.3, 14.3, 14.75, 14.75, 15.2, 15.2, 15.15, 15.15, 15.15, 14.75, 14.47, 12.51, 11.54, 11.54, 11.88, 11.88, 11.88, 12.73, 13.58, 13.2, 12.81, 12.27, 11.17, 11.17, 12.65, 12.65, 13.7, 13.99, 13.88, 14.64, 14.22, 14.19, 15.08, 15.08, 15.53, 15.53, 14.64, 12.0, 10.41, 11.56, 12.87, 12.79, 12.27, 11.69, 10.94, 9.76, 7.97, 6.92, 6.3, 5.6, 5.1, 3.77, 2.56, 1.84, 0.6, -0.0, -0.0, -0.0, -1.32, -4.37, -3.77, -2.83, -0.85, -0.0, -0.0, -0.0, 1.64, 6.65, 8.74, -16.54, -8.68, 15.65, 14.4, 12.52, 11.95, 12.02, 11.38, 11.17, 12.45, 12.86, 12.66, 12.88, 12.42, 12.39, 12.35, 12.52, 12.52, 12.52, 12.14, 10.8, 10.8, 10.48, 12.96, 12.96, 12.96, 13.41, 13.41, 13.86, 13.86, 14.3, 14.3, 14.75, 14.75, 14.75, 15.16, 15.16, 14.71, 14.75, 14.47, 12.9, 11.8, 11.54, 11.54, 11.54, 12.37, 13.27, 13.99, 13.58, 13.56, 12.79, 11.17, 12.27, 12.27, 13.7, 13.7, 14.55, 14.16, 14.19, 14.19, 13.77, 14.22, 14.66, 14.66, 15.08, 14.19, 12.22, 11.03, 12.14, 13.59, 13.42, 12.65, 12.07, 11.21, 9.69, 7.59, 6.62, 5.9, 5.32, 5.1, 3.77, 2.46, 1.84, 0.63, -0.0, -0.0, -0.0, -0.0, -0.0, -3.17, -2.46, -0.8, -0.0, -0.81, -0.85, -0.0, 4.58, 6.65, 11.53, 10.66, 9.89, 9.39, 8.53, 9.53, 12.48, 13.16, 11.38, 12.96, 12.52, 12.52, 12.79, 12.71, 11.6, 8.85, 5.6, 5.6, 8.85, 12.52, 12.07, 11.45, 11.45, 12.52, 12.52, 12.96, 12.96, 13.41, 13.41, 13.86, 14.3, 14.3, 14.3, 14.75, 14.71, 14.71, 14.71, 14.71, 14.75, 14.51, 13.48, 12.51, 11.8, 12.16, 12.89, 12.89, 13.59, 13.59, 14.23, 13.56, 12.79, 12.79, 11.88, 11.88, 12.87, 13.57, 13.57, 14.16, 13.75, 13.75, 13.33, 13.77, 14.22, 14.19, 14.22, 13.53, 12.22, 11.45, 11.99, 12.95, 13.34, 12.07, 11.69, 10.85, 9.34, 6.95, 6.01, 5.6, 5.6, 5.05, 3.77, 3.15, 1.84, 1.22, 0.57, -0.0, -0.0, -0.0, -0.0, -1.4, -2.33, -1.67, -0.85, -0.85, -0.81, -0.0, 1.93, 4.93, 6.4, 12.09, 11.71, 9.92, 7.69, 9.02, 12.96, 13.15, 12.34, 8.85, 11.45, 12.52, 12.3, 9.17, -0.0, -0.0, -0.0, -0.0, -0.0, 12.07, 10.8, 10.8, 10.8, 12.47, 12.47, 12.96, 12.96, 13.41, 13.41, 13.86, 13.86, 13.86, 14.3, 14.3, 14.71, 14.71, 14.71, 14.71, 14.75, 14.69, 13.99, 12.9, 12.51, 12.89, 12.89, 13.59, 13.59, 14.42, 14.23, 13.81, 13.15, 12.39, 12.39, 11.99, 11.99, 12.72, 13.15, 13.75, 13.31, 13.33, 13.33, 13.33, 13.33, 13.77, 13.53, 12.72, 11.21, 10.4, 11.6, 12.27, 12.56, 11.31, 10.12, 9.34, 7.9, 6.31, 5.63, 5.9, 5.6, 5.05, 4.3, 3.15, 1.84, 1.22, 0.6, -0.0, -0.0, -0.0, -0.0, -1.2, -2.33, -1.6, -1.6, -1.75, -1.75, -0.0, 1.02, 2.19, 4.28, 6.99, 9.89, 9.89, 8.41, 9.94, 12.51, 11.73, -0.0, 0.0, 9.17, 12.52, -0.0, -4.1, -4.1, -3.96, -5.6, -5.4, -0.0, 12.07, 12.07, 12.07, 12.07, 12.47, 12.47, 12.96, 12.96, 13.41, 13.41, 13.86, 13.86, 14.3, 14.26, 14.26, 14.71, 14.71, 14.71, 14.71, 14.75, 14.69, 14.13, 13.48, 12.9, 13.29, 13.89, 13.89, 13.89, 14.42, 14.42, 13.81, 13.15, 12.39, 11.99, 11.99, 11.99, 12.72, 12.89, 12.89, 13.31, 12.88, 13.33, 13.33, 13.33, 13.09, 12.72, 12.04, 10.4, 9.58, 10.35, 11.5, 11.5, 10.99, 9.42, 8.31, 7.27, 6.01, 5.63, 5.9, 5.1, 4.84, 4.3, 3.33, 2.56, 1.23, 0.61, 0.6, 0.58, -0.0, -0.0, -0.0, -1.58, -2.35, -2.57, -2.58, -0.94, -0.0, 1.02, 1.07, 3.06, 5.55, 7.43, 8.6, 9.26, 11.9, 13.25, 9.8, -12.65, -14.3, -13.41, -11.6, -10.79, -10.79, -10.41, -11.6, -6.45, -8.85, -8.53, -12.07, 11.62, 11.62, 11.62, 12.47, 12.47, 12.92, 12.96, 12.96, 13.41, 13.41, 13.82, 14.26, 14.26, 14.26, 14.27, 14.71, 14.71, 14.75, 14.75, 14.7, 14.47, 13.48, 13.48, 13.48, 13.89, 13.89, 13.89, 14.42, 14.42, 13.99, 13.39, 12.74, 12.39, 11.99, 12.3, 12.46, 12.46, 12.86, 12.86, 12.88, 12.88, 13.09, 12.66, 12.3, 11.85, 11.6, 9.97, 9.58, 10.35, 11.12, 11.12, 10.62, 9.42, 8.31, 6.95, 5.66, 5.94, 5.9, 4.88, 4.84, 4.3, 3.92, 2.56, 1.23, 1.23, 0.6, 0.57, 0.59, -0.0, -0.0, -1.65, -1.67, -3.15, -2.69, -1.84, -0.0, -0.0, 1.07, 2.0, 4.28, 6.64, 6.6, 7.31, 10.81, 13.41, 12.16, -13.64, -16.54, -14.3, -13.15, -13.15, -12.58, -12.3, -8.53, -7.9, -8.22, -8.53, -10.4, -11.62, -11.62, -11.62, 12.35, 12.35, 12.92, 12.92, 13.36, 13.37, 13.37, 13.82, 13.7, 14.14, 14.14, 14.14, 14.71, 14.75, 14.75, 14.75, 14.75, 14.51, 14.13, 13.48, 13.48, 13.89, 13.89, 13.89, 14.42, 14.56, 13.99, 13.39, 12.74, 12.39, 12.72, 12.46, 12.46, 12.42, 12.42, 12.14, 12.14, 12.14, 12.3, 12.3, 11.85, 11.33, 11.6, 10.35, 9.58, 10.35, 10.73, 10.73, 10.25, 9.08, 7.97, 6.95, 5.98, 5.94, 5.15, 4.88, 4.84, 4.54, 3.92, 2.71, 1.86, 1.23, 1.22, 0.6, 0.58, -0.0, -0.0, -1.2, -1.2, -1.75, -2.69, -1.75, -0.85, -0.0, 0.97, 2.0, 3.47, 5.36, 5.16, 5.16, 8.0, 13.17, 12.89, -0.0, -20.12, -16.09, -13.86, -13.41, -12.79, -10.35, -9.97, -8.22, -8.94, -9.3, -10.6, -11.18, -11.18, -11.18, 12.35, 12.35, 12.79, 12.79, 12.79, 13.23, 13.7, 13.7, 13.7, 13.7, 14.14, 14.26, 14.26, 14.75, 14.75, 14.75, 14.75, 14.51, 14.13, 13.28, 13.28, 13.7, 14.11, 14.11, 14.56, 14.56, 14.13, 13.57, 12.98, 12.74, 12.89, 12.89, 12.46, 12.14, 12.14, 11.71, 11.3, 11.2, 11.44, 11.44, 10.94, 10.94, 10.94, 10.8, 10.0, 10.8, 10.73, 10.73, 9.89, 8.73, 8.02, 7.27, 6.28, 5.66, 4.92, 4.88, 4.84, 4.35, 3.77, 3.2, 1.86, 1.18, 1.22, 1.2, 0.58, -0.0, -0.0, -1.11, -1.05, -0.89, -1.94, -1.75, -1.54, -0.0, -0.0, 1.92, 3.34, 4.12, 4.99, 4.65, 4.47, 9.68, 12.65, 10.68, -24.59, -20.28, -16.54, -12.79, -11.2, -10.8, -9.42, -9.08, -8.94, -9.6, -10.0, -10.6, -10.6, -10.6, 12.14, 12.14, 12.3, 12.58, 12.58, 13.01, 13.67, 13.7, 13.7, 14.26, 14.26, 14.26, 14.75, 14.75, 14.75, 14.75, 14.75, 14.55, 14.13, 13.7, 13.7, 13.7, 14.11, 14.11, 14.56, 14.13, 14.13, 13.7, 13.15, 12.56, 12.33, 12.89, 12.58, 12.14, 11.72, 11.3, 10.8, 10.8, 11.03, 10.94, 10.94, 10.94, 10.94, 10.8, 10.4, 11.2, 11.12, 10.73, 9.52, 8.02, 7.68, 6.95, 6.58, 5.94, 4.92, 4.88, 4.63, 4.35, 4.12, 3.2, 2.6, 1.25, 1.23, 1.2, 0.58, -0.0, -0.0, -0.78, -0.81, -0.81, -1.75, -3.81, -2.47, -0.82, -0.0, 1.92, 2.94, 3.97, 3.68, 3.81, 4.08, 4.54, 10.04, 14.13, 14.63, -21.92, -10.82, -6.45, -3.68, -4.48, -8.22, -9.97, -9.58, -10.0, -10.0, -10.41, -10.41, -10.41, 11.87, 11.87, 12.3, 12.3, 12.58, 13.01, 13.67, 13.7, 13.82, 14.3, 14.3, 14.3, 14.75, 14.75, 14.75, 14.75, 14.75, 14.55, 14.23, 13.7, 13.19, 13.86, 14.11, 14.11, 14.13, 14.13, 14.13, 13.7, 12.66, 13.15, 12.56, 12.56, 12.14, 11.72, 11.72, 10.8, 11.03, 11.03, 11.03, 10.55, 10.55, 10.55, 10.55, 10.55, 10.55, 11.2, 11.12, 10.73, 9.17, 8.02, 7.68, 6.95, 6.58, 5.36, 4.92, 4.66, 4.88, 4.16, 4.16, 3.61, 2.49, 1.79, 1.18, 1.22, 0.6, -0.0, -0.79, -0.75, -0.82, -0.82, -0.85, -1.75, -3.3, -2.13, -0.0, 1.84, 2.82, 2.71, 2.71, 3.81, 3.02, 3.25, 5.78, 14.03, 21.44, -17.26, -11.33, -6.58, -1.52, 2.71, 1.84, -6.2, -10.96, -11.28, -10.84, -10.73, -10.73, -10.73, 11.87, 11.87, 11.87, 12.58, 12.58, 12.79, 13.23, 13.82, 13.86, 14.3, 14.3, 14.75, 14.75, 14.75, 14.75, 14.75, 14.75, 14.55, 14.23, 13.7, 13.19, 13.86, 13.86, 13.86, 14.13, 14.13, 14.13, 13.7, 12.87, 12.66, 12.25, 11.99, 12.14, 11.85, 11.44, 11.03, 11.03, 10.62, 10.16, 10.16, 10.55, 10.55, 10.55, 10.16, 10.55, 11.2, 11.12, 10.73, 9.53, 8.35, 7.68, 6.95, 6.58, 5.26, 5.21, 4.92, 4.66, 4.16, 4.16, 3.65, 3.07, 1.89, 1.86, 1.23, -0.0, -0.58, -1.52, -0.79, -0.78, -0.81, -0.78, -0.81, -1.84, -2.39, -0.0, 1.02, 1.92, 2.71, 2.82, 3.04, 3.14, 3.41, 5.15, 14.3, 16.12, -17.63, -13.58, -9.7, -5.7, 1.33, 6.2, 7.59, -0.0, -11.18, -10.73, -10.28, -10.28, -10.28, 12.2, 12.2, 12.14, 12.58, 12.79, 12.79, 13.37, 13.82, 13.86, 14.3, 14.3, 14.75, 14.75, 14.75, 14.75, 14.75, 14.71, 14.7, 14.23, 13.86, 13.43, 13.86, 13.86, 13.86, 14.23, 14.13, 13.7, 13.7, 12.87, 12.45, 12.25, 11.85, 11.85, 11.85, 11.44, 11.03, 10.55, 10.16, 10.16, 10.16, 10.16, 10.16, 10.16, 10.16, 9.97, 9.97, 10.35, 10.35, 9.53, 8.35, 8.02, 7.27, 6.95, 5.52, 4.96, 4.69, 4.92, 4.2, 3.97, 3.65, 3.11, 2.49, 1.79, 1.23, -0.0, -0.57, -2.37, -2.34, -1.6, -1.58, -1.58, -0.77, -0.0, -0.0, -0.0, -0.0, 0.85, 1.63, 1.7, 2.82, 3.18, 4.65, 7.58, 21.59, 17.49, -17.48, -16.12, -10.79, -6.7, -0.0, 6.44, 8.82, 9.6, 9.6, 10.28, 0.0, 0.0, 0.0, 12.2, 12.2, 12.37, 12.37, 12.81, 12.81, 13.37, 13.37, 13.86, 13.86, 14.3, 14.3, 14.75, 14.71, 14.71, 14.71, 14.71, 14.71, 14.55, 14.28, 13.86, 13.86, 13.86, 13.86, 13.86, 13.7, 13.7, 13.7, 13.27, 12.45, 12.45, 11.85, 11.85, 11.44, 11.44, 10.55, 10.55, 10.16, 10.16, 9.77, 10.16, 10.16, 10.4, 10.4, 9.58, 9.58, 9.97, 9.52, 9.17, 8.82, 8.02, 7.68, 6.58, 5.78, 5.21, 4.96, 4.24, 4.0, 4.2, 3.97, 2.97, 2.39, 1.79, 1.18, 0.59, -0.58, -2.37, -2.99, -2.35, -1.65, -2.54, -1.84, -0.0, -0.0, -0.0, -0.0, -0.0, 0.8, 1.63, 1.76, 2.94, 4.99, 16.61, 19.93, 16.37, -14.54, -15.19, -5.15, -0.0, 1.84, 6.24, 8.82, 9.48, 10.18, 10.73, 9.2, 9.2, 9.2, 12.39, 12.39, 12.39, 12.39, 12.39, 12.83, 13.38, 13.86, 13.86, 13.86, 13.86, 14.3, 14.71, 14.71, 14.71, 14.71, 14.71, 14.71, 14.55, 14.66, 14.28, 13.86, 13.86, 14.23, 13.44, 13.44, 13.28, 13.27, 13.27, 12.45, 12.45, 12.04, 12.04, 11.62, 11.62, 10.55, 10.55, 10.16, 10.16, 9.77, 9.77, 10.4, 10.4, 10.0, 9.58, 9.2, 9.2, 8.79, 8.47, 8.47, 8.02, 7.68, 6.58, 6.14, 5.78, 5.21, 4.69, 4.24, 4.0, 4.2, 2.97, 2.42, 2.39, 1.2, 0.62, -0.61, -2.28, -2.84, -2.39, -2.4, -2.83, -2.06, -1.11, -0.0, -0.0, -2.7, -1.56, -0.0, 0.82, 1.76, 2.71, 3.68, 12.59, 19.0, 16.81, 12.01, 3.07, 4.39, 5.64, 5.92, 7.27, 8.75, 9.46, 9.58, 10.73, 9.75, 9.75, 9.75, 12.39, 12.39, 12.39, 12.39, 12.48, 12.48, 12.96, 13.41, 13.41, 13.41, 13.86, 14.3, 14.27, 14.71, 14.71, 14.71, 14.72, 14.71, 14.58, 14.66, 14.66, 14.28, 14.66, 14.23, 13.8, 13.44, 13.44, 13.02, 12.87, 12.45, 12.04, 12.04, 11.62, 11.62, 11.62, 11.21, 10.8, 10.4, 10.0, 10.0, 10.0, 10.0, 10.0, 10.0, 9.2, 9.2, 9.2, 8.79, 8.42, 8.12, 7.68, 7.68, 7.27, 6.14, 5.78, 5.21, 5.21, 4.24, 4.24, 4.0, 3.7, 2.42, 2.39, 1.79, 0.6, -0.0, -1.74, -2.84, -2.93, -2.31, -1.95, -2.06, -1.05, -0.0, -0.0, -1.94, -3.81, -0.89, -0.0, 0.89, 1.76, 5.6, 8.91, 16.43, 18.63, 13.28, 8.97, 6.48, 6.51, 6.31, 7.27, 8.22, 7.44, 8.94, 10.18, 9.2, 9.2, 9.2, 12.41, 12.41, 12.49, 12.49, 12.93, 12.96, 12.96, 12.96, 13.41, 13.41, 13.86, 14.3, 14.27, 14.71, 14.71, 14.71, 14.72, 14.72, 14.71, 14.55, 14.66, 14.66, 14.66, 14.31, 13.88, 13.44, 13.44, 13.02, 12.6, 12.6, 12.04, 11.62, 11.62, 11.62, 11.21, 11.21, 10.8, 10.4, 10.4, 10.0, 10.0, 10.0, 10.0, 9.81, 9.42, 9.42, 9.2, 8.42, 8.42, 8.12, 8.12, 7.68, 7.27, 6.58, 5.78, 5.78, 5.21, 4.69, 4.24, 4.24, 3.52, 3.16, 2.53, 1.89, 0.6, -0.0, -1.76, -2.87, -2.9, -2.35, -1.65, -1.95, -1.0, -0.94, -0.89, -1.75, -2.97, -3.11, -1.02, -0.0, 2.94, 4.99, 6.98, 12.69, 18.58, 16.05, 9.35, 7.79, 7.8, 6.05, 5.32, 4.15, 5.98, 6.2, 10.73, 7.59, 7.59, 7.59, 12.49, 12.49, 12.49, 12.49, 12.96, 12.96, 12.96, 13.41, 13.41, 13.41, 13.86, 13.86, 14.3, 14.75, 14.75, 14.75, 14.75, 14.75, 14.71, 15.15, 14.99, 14.95, 14.66, 14.31, 13.88, 13.88, 13.15, 13.02, 12.6, 12.18, 12.18, 11.76, 11.76, 11.34, 11.34, 11.21, 10.4, 10.4, 10.4, 10.0, 10.0, 10.17, 10.17, 9.42, 9.42, 9.42, 9.42, 8.42, 8.42, 8.42, 8.12, 7.35, 7.27, 6.58, 6.58, 5.78, 5.21, 5.21, 4.96, 4.03, 3.75, 3.01, 2.58, 1.93, 0.61, -0.0, -1.2, -2.35, -2.9, -3.11, -2.44, -1.84, -1.95, -1.95, -1.05, -0.99, -1.04, -1.16, -1.09, 1.02, 2.0, 3.97, 6.96, 10.83, 15.44, 14.54, 10.36, 8.46, 8.73, 7.51, 2.95, -2.71, -0.0, -0.0, 10.73, -7.59, -7.59, -7.59, 12.49, 12.49, 12.49, 12.49, 12.96, 12.96, 12.96, 13.41, 13.41, 13.41, 13.86, 13.86, 14.3, 14.3, 14.75, 14.3, 14.3, 14.75, 14.75, 14.71, 15.15, 14.95, 14.95, 14.95, 14.11, 13.44, 13.44, 13.15, 12.72, 12.3, 12.3, 11.76, 11.76, 11.34, 11.34, 10.99, 10.99, 10.58, 10.58, 10.17, 10.17, 10.17, 9.77, 9.42, 9.42, 9.42, 9.03, 8.82, 8.42, 8.42, 8.42, 7.35, 6.95, 6.95, 6.58, 5.94, 5.52, 5.21, 5.21, 4.5, 3.56, 3.05, 2.46, 1.75, 1.16, -0.0, -0.58, -2.25, -2.77, -2.8, -2.33, -1.75, -1.0, -1.14, -1.2, -0.0, -0.0, -0.0, -0.0, 1.02, 1.92, 3.97, 5.99, 9.34, 13.59, 13.04, 10.36, 9.39, 9.08, 8.14, -0.0, -9.96, -10.0, -10.6, -11.18, -11.18, -11.18, -11.18, 12.49, 12.49, 12.49, 12.52, 12.52, 12.96, 12.96, 12.96, 13.41, 13.41, 13.86, 13.86, 14.3, 14.3, 14.3, 14.3, 14.3, 14.3, 14.75, 14.75, 14.75, 15.15, 15.14, 14.69, 14.11, 13.67, 13.44, 12.72, 12.72, 12.3, 11.97, 11.55, 11.14, 11.14, 11.14, 11.14, 10.99, 10.58, 10.58, 10.58, 10.17, 10.17, 10.32, 9.9, 9.42, 9.42, 9.03, 9.03, 8.82, 8.42, 8.06, 7.68, 7.31, 7.31, 6.58, 6.28, 5.94, 5.26, 5.52, 4.5, 4.5, 3.8, 3.05, 1.87, 1.18, -0.0, -0.59, -1.73, -2.28, -2.8, -2.3, -1.58, -0.94, -0.0, -0.0, -0.0, -0.0, -0.0, -0.0, -0.0, 0.93, 2.94, 4.99, 7.89, 12.08, 11.84, 9.41, 8.65, 8.38, 9.11, 1.89, -12.72, -10.18, -10.96, -11.18, -11.62, -11.62, -11.62, 12.49, 12.49, 12.94, 12.96, 12.96, 12.96, 12.96, 12.96, 12.96, 13.41, 13.41, 13.86, 14.3, 14.3, 14.3, 14.3, 14.3, 14.3, 14.3, 14.75, 14.75, 14.75, 14.75, 14.69, 14.26, 13.67, 13.44, 13.07, 12.82, 12.39, 12.39, 11.68, 11.27, 11.27, 11.27, 10.73, 10.73, 10.73, 10.73, 10.32, 10.32, 10.32, 10.32, 9.9, 9.6, 9.42, 9.42, 9.03, 9.03, 8.42, 8.06, 7.68, 7.68, 7.31, 6.98, 6.28, 6.28, 5.98, 5.26, 5.26, 4.8, 3.8, 3.05, 2.33, 1.18, 0.59, -0.0, -1.16, -2.28, -2.28, -2.3, -1.69, -1.1, -0.0, -0.0, -0.0, -0.0, -0.0, -0.0, -0.0, -0.0, 2.1, 3.97, 6.72, 8.65, 10.13, 9.19, 8.22, 8.57, 10.11, 7.82, -14.39, -12.04, -10.6, -10.96, -11.62, -11.62, -11.62, 12.49, 12.49, 12.94, 12.96, 12.96, 12.96, 12.96, 12.96, 12.96, 13.41, 13.41, 13.86, 14.3, 14.3, 14.3, 14.3, 14.3, 14.3, 14.3, 14.75, 14.75, 14.75, 14.75, 14.69, 14.26, 13.67, 13.44, 13.07, 12.82, 12.39, 12.39, 11.68, 11.27, 11.27, 11.27, 10.73, 10.73, 10.73, 10.73, 10.32, 10.32, 10.32, 10.32, 9.9, 9.6, 9.42, 9.42, 9.03, 9.03, 8.42, 8.06, 7.68, 7.68, 7.31, 6.98, 6.28, 6.28, 5.98, 5.26, 5.26, 4.8, 3.8, 3.05, 2.33, 1.18, 0.59, -0.0, -1.16, -2.28, -2.28, -2.3, -1.69, -1.1, -0.0, -0.0, -0.0, -0.0, -0.0, -0.0, -0.0, -0.0, 1.07, 3.21, 4.99, 6.53, 7.54, 8.7, 8.46, 9.09, 10.11, 10.47, -0.0, -15.34, -10.96, -10.96, -11.62, -11.62, -11.62]}, {"header": {"dx": 0.06612293990616946, "dy": 0.0552356325346848, "nx": 98, "ny": 59, "la1": 35.046912555036876, "la2": 31.78801023549047, "lo1": -121.43107172385933, "lo2": -114.95102361305473, "refTime": "2026041115", "parameterCategory": 1, "parameterNumber": 3}, "data": [14.47, 12.65, 10.43, 9.22, 6.6, 4.66, 4.66, 2.43, 2.89, 2.89, 3.36, 2.82, 3.96, 5.0, 4.6, 4.8, 4.8, 4.8, 7.59, 9.6, 11.18, 11.62, 10.73, 10.73, 9.6, 7.9, 5.95, 3.39, 2.71, -0.0, -0.0, -0.0, -0.0, 1.32, 3.45, 3.91, 5.59, 6.13, 5.37, -0.0, 0.0, 0.0, 0.0, 0.0, 0.0, -2.21, 0.0, 11.27, 14.66, 14.39, 12.96, 12.96, 12.96, 12.52, 12.3, 12.04, 11.99, 13.28, 13.41, 11.16, 4.24, -0.0, -0.0, -0.0, -0.0, -0.0, 13.86, 6.2, 8.18, 13.02, 14.84, 13.99, 13.41, 12.07, 12.52, 12.52, 12.52, 13.41, 0.0, 0.0, 0.0, 0.0, 0.0, 6.32, 9.39, 8.4, 4.0, 3.8, 4.71, 7.51, 9.97, 10.35, 10.73, 10.73, 11.62, 11.62, 8.94, 8.23, 14.3, 13.7, 12.65, 11.52, 10.43, 7.59, 2.98, -0.0, -0.0, -0.0, -0.0, -0.0, 3.68, 3.39, 5.2, 5.0, 4.6, 8.22, 7.59, 7.27, 10.8, 12.07, 12.07, 11.62, 10.73, 7.59, 7.27, 4.6, 4.8, 5.0, -0.0, -0.0, -0.0, -0.0, 1.52, 2.66, 3.6, 5.69, 6.01, -0.0, -0.0, -8.22, -5.8, -5.63, -5.81, -7.04, 0.0, 8.4, 10.19, 11.16, 12.96, 12.96, 12.96, 12.52, 11.87, 12.71, 13.31, 13.41, 13.41, 13.41, 13.41, 7.19, -0.0, -0.0, -0.0, -0.0, -0.0, 9.8, 10.75, 16.09, 11.7, 8.93, 10.12, 11.6, 11.6, 9.17, 5.6, 13.41, 0.0, 0.0, 0.0, 0.0, 0.0, 6.32, 9.39, 8.4, 4.0, 3.8, 4.71, 7.51, 9.97, 10.35, 10.73, 10.73, 11.62, 11.62, 8.94, 8.23, 14.03, 14.55, 13.7, 13.7, 13.19, 10.43, 6.8, 3.69, -0.0, -0.0, -0.0, -0.0, -0.0, 3.68, 3.39, 3.39, 3.53, 5.0, 7.9, 8.85, 10.0, 8.22, 11.62, 12.07, 12.52, 10.28, 0.0, 6.95, 6.95, 9.6, 12.07, 12.52, 12.07, 0.0, -0.0, -0.0, -0.0, -0.0, -0.0, -0.0, -11.62, -11.88, -10.3, -10.73, -10.42, -9.0, 0.0, 4.45, 7.44, 9.17, 12.96, 13.41, 12.96, 12.52, 12.52, 13.41, 13.34, 13.25, 13.38, 13.38, 13.23, 12.96, 9.17, -0.0, -3.14, -0.0, 9.17, 12.39, 15.2, -0.0, -0.0, 4.12, 8.68, 9.48, 10.79, 6.94, 3.96, 6.4, -0.0, -9.48, -7.27, -9.83, -8.94, 0.0, -0.0, 6.32, 3.6, 3.8, 4.96, 7.9, 9.8, 10.12, 10.73, 10.73, 10.8, 10.0, 8.8, 7.51, 14.03, 14.03, 14.47, 14.31, 14.75, 14.75, 14.42, 10.75, 4.66, -0.0, -0.0, -0.0, -0.0, -0.0, 3.53, 3.53, 3.68, 5.4, 10.8, 10.0, 10.0, 7.59, 11.18, 11.62, 10.73, 7.9, 7.27, 0.0, 9.39, 9.2, 11.18, 11.62, 11.03, 7.59, 4.2, 9.39, 9.83, 0.0, -11.62, -13.41, -14.94, -16.3, -14.59, -11.93, -10.13, -6.14, 0.0, 0.0, 3.96, 9.17, 12.52, 12.96, 12.96, 12.52, 12.52, 12.83, 12.42, 13.01, 13.23, 13.41, 12.58, 12.18, 12.14, 12.52, -0.0, -0.0, 12.3, 13.41, 14.75, 4.95, -0.0, -0.0, 3.33, 7.36, 7.24, 5.4, 2.93, -0.0, -0.0, -6.0, -5.46, -5.46, -4.0, -0.0, -0.0, -0.0, 4.0, 4.71, 8.23, 9.8, 11.06, 8.18, 7.44, 9.67, 10.41, 9.54, 8.72, 8.3, 13.28, 14.03, 14.47, 14.31, 14.75, 14.75, 15.2, 15.2, 13.99, 3.36, -0.0, -0.0, -0.0, -0.0, -0.0, -0.0, 3.68, 8.53, 8.53, 10.04, 11.2, 11.18, 10.73, 11.62, 10.73, 10.0, 10.0, 7.9, 11.18, 9.83, 9.2, 10.28, 11.62, 11.03, 9.3, 9.3, 7.9, 5.8, -13.99, -17.97, -17.19, -13.61, -9.73, -7.44, -5.8, -2.37, 0.0, 0.0, 0.0, 0.0, 12.96, 12.96, 11.2, 11.87, 11.62, 12.14, 11.85, 12.45, 13.15, 13.41, 12.71, 12.51, 11.76, 12.3, 13.23, 13.41, 12.45, 13.23, 13.15, 12.65, 5.37, 4.66, 7.3, 9.66, 8.66, 6.71, 2.82, -0.0, -3.47, -7.69, -5.9, -3.49, -2.06, -2.69, -0.0, 2.69, 6.32, 8.03, 10.73, 13.02, 10.75, 4.38, 5.4, 9.6, 9.39, 9.39, 8.82, 8.72, 12.79, 14.03, 14.03, 14.31, 14.75, 14.75, 15.2, 14.75, 14.75, 12.39, 5.4, -0.0, -0.0, -0.0, -0.0, -0.0, 3.68, 5.4, 8.53, 6.94, 6.94, 10.04, 13.41, 12.96, 12.07, 12.07, 10.4, 10.0, 11.18, 11.18, 9.39, 9.39, 9.83, 12.07, 11.16, 9.48, 9.17, 8.31, 0.0, -18.78, -16.09, -10.12, -2.45, 0.0, 0.0, 2.45, 4.65, 5.6, 3.96, 5.6, 12.07, 12.52, 11.2, 10.41, 10.37, 11.26, 11.26, 11.6, 13.09, 13.41, 12.96, 12.45, 12.79, 13.7, 13.7, 14.25, 13.75, 11.6, 11.5, 12.87, 13.59, 14.13, 14.66, 14.66, 13.28, 9.39, 2.6, -2.6, -4.6, -6.7, -4.2, -2.83, -1.67, -2.06, 2.69, 6.32, 7.9, 11.17, 12.52, 10.75, 7.93, 3.96, 8.22, 8.94, 9.39, 9.39, 10.28, 10.96, 12.79, 14.03, 14.03, 14.47, 14.75, 14.75, 14.75, 14.75, 14.3, 13.59, 10.8, 6.95, -0.0, -0.0, -0.0, -0.0, -0.0, -0.0, -0.0, 3.96, 4.1, 4.52, 8.18, 13.99, 15.2, 14.75, 15.2, 14.3, 12.96, 9.6, 9.6, 9.39, 9.83, 9.83, 10.4, 9.8, 8.58, 7.69, 9.8, -13.41, -14.3, 0.0, 4.24, 7.44, 10.43, 7.78, 7.82, 9.77, 11.21, 11.87, 12.52, 12.07, 12.52, 8.85, 6.94, 10.12, 10.79, 11.26, 12.58, 12.88, 12.52, 12.07, 13.86, 14.26, 14.58, 15.46, 14.3, 11.99, 9.48, 11.09, 12.79, 13.59, 11.38, 12.01, 10.19, 7.6, -0.0, -2.49, -3.65, -3.65, -3.32, -1.62, -0.0, 2.02, 7.59, 9.27, 10.12, 9.77, 9.39, 5.15, 2.45, -0.0, 8.49, 8.24, 8.82, 8.94, 11.18, 11.4, 12.39, 13.28, 14.03, 14.03, 14.75, 14.75, 14.75, 14.75, 14.3, 13.23, 11.02, 9.64, 9.2, 10.0, 8.85, 3.53, -0.0, -0.0, -0.0, -0.0, 9.48, 6.0, 6.0, 7.0, 6.8, 10.75, 0.0, 0.0, 14.75, 13.41, 10.8, 12.07, 12.52, 11.2, 7.9, 3.96, 4.1, 2.71, 5.2, 0.0, -12.96, 0.0, 11.38, 9.42, 7.2, 3.47, 9.66, 11.3, 11.45, 12.79, 11.46, 12.07, 12.52, 0.0, 5.6, 7.51, 10.04, 10.48, 11.45, 11.78, 11.57, 12.71, 13.79, 14.3, 14.47, 14.95, 16.09, 11.88, 6.2, 3.36, 3.47, 6.6, 6.8, 3.79, -0.0, -0.0, -3.58, -2.45, -2.45, -6.4, -7.0, -0.0, 3.53, 7.26, 8.53, 9.48, 7.93, 6.6, 4.38, 4.48, 5.0, 5.37, 7.6, 8.41, 8.43, 9.83, 11.62, 11.4, 11.09, 13.28, 14.03, 14.03, 14.75, 14.75, 14.75, 14.75, 14.3, 12.79, 11.03, 11.46, 12.3, 12.3, 11.2, 5.6, 5.8, -0.0, -0.0, 9.48, 13.41, 13.41, 12.39, 10.12, 5.8, -0.0, -0.0, 0.0, 15.65, 14.3, 9.8, 15.2, 15.2, 9.8, 8.85, 3.68, 0.0, 0.0, 0.0, 0.0, 0.0, 0.0, 0.0, 0.0, 0.0, 2.19, 11.87, 13.23, 11.99, 11.87, 12.45, 10.8, 0.0, 0.0, -0.0, 5.2, 9.08, 10.68, 11.03, 11.35, 11.35, 13.09, 12.83, 13.86, 14.11, 15.08, 16.54, 13.99, -0.0, -0.0, -0.0, -0.0, -0.0, -0.0, -3.47, -2.81, -2.13, -1.98, -2.28, -7.2, -7.4, -0.0, 3.98, 7.26, 8.22, 8.53, 6.67, 4.1, 2.95, 5.06, 7.15, 7.94, 6.71, 8.05, 9.33, 10.2, 12.07, 10.84, 11.09, 12.87, 13.28, 14.03, 14.75, 14.75, 14.75, 14.75, 14.3, 12.83, 11.87, 12.3, 11.21, 11.99, 9.8, 9.48, 10.12, -0.0, -0.0, -0.0, 9.17, 12.96, 13.86, 10.12, -0.0, -0.0, -0.0, 0.0, 0.0, 0.0, 0.0, 16.54, 0.0, 0.0, 8.53, 5.0, 0.0, 0.0, 0.0, 0.0, 5.8, 5.8, 0.0, 0.0, 0.0, 5.0, 10.79, 11.45, 12.14, 12.3, 11.2, 10.35, 5.2, -11.62, -5.2, -0.0, 2.82, 8.22, 10.4, 11.03, 12.14, 13.75, 14.75, 13.86, 14.3, 15.2, 16.09, 7.4, -0.0, -0.0, -0.0, -0.0, -3.47, -4.66, -0.0, -0.0, -0.0, -0.0, -1.5, -2.98, -12.33, 0.0, 9.48, 7.59, 9.2, 8.8, 7.27, 4.6, 6.17, 6.98, 7.4, 8.24, 7.1, 9.32, 10.73, 11.09, 12.07, 9.2, 9.8, 11.88, 13.28, 14.47, 14.47, 14.75, 14.75, 14.75, 14.3, 13.41, 12.83, 13.15, 13.15, 12.87, 10.12, 12.79, 11.06, -0.0, -0.0, -0.0, 0.0, 0.0, 0.0, 0.0, -0.0, -0.0, -0.0, 0.0, 0.0, 0.0, 0.0, 0.0, 0.0, 0.0, 0.0, 0.0, 5.2, 8.22, 0.0, 4.38, 7.93, 7.44, 3.68, 0.0, 0.0, 6.17, 8.38, 10.0, 10.75, 10.91, 10.92, 11.03, 11.21, 0.0, -5.4, -0.0, 4.1, 6.21, 9.82, 10.88, 12.39, 13.99, 14.03, 14.75, 14.75, 15.2, -0.0, -5.37, -3.07, -0.0, -0.0, -0.0, -3.47, -3.47, -0.0, 4.38, 2.54, -0.0, -0.0, -0.0, -0.0, 0.0, 0.0, 0.0, 0.0, 7.59, 0.0, 9.39, 8.18, 7.6, 7.37, 9.45, 8.17, 10.32, 11.18, 12.07, 10.28, 8.93, 9.8, 11.88, 13.28, 13.7, 14.47, 14.47, 14.75, 14.75, 14.3, 13.41, 13.41, 13.67, 14.55, 14.03, 13.01, 11.87, 11.2, 14.75, 16.09, 16.99, 16.54, 0.0, 0.0, 0.0, 0.0, 0.0, 0.0, 5.69, 7.9, 0.0, 0.0, 0.0, 0.0, 0.0, -3.39, 0.0, 3.25, 10.8, 8.85, 6.0, 7.69, 7.44, 6.7, 5.0, 7.27, 7.51, 9.6, 10.73, 10.73, 11.18, 11.54, 11.97, 12.45, 13.86, 11.16, 13.53, 14.3, 12.04, 11.72, 11.61, 13.75, 13.39, 14.6, 14.75, 14.75, 15.65, 16.54, 12.64, -4.55, -2.94, -1.94, -2.35, -0.0, -0.0, -0.0, 3.25, 3.14, 3.68, 1.55, 2.2, 4.38, 13.41, 11.87, 0.0, 3.04, 0.0, -3.68, 0.0, 9.39, 8.0, 7.68, 8.24, 7.9, 10.0, 9.96, 11.4, 9.2, 7.59, 10.82, 10.82, 12.27, 13.7, 13.7, 14.47, 14.47, 14.3, 14.3, 13.86, 13.86, 14.3, 14.55, 14.99, 15.34, 15.2, 14.3, 13.41, 12.96, 13.41, 9.48, 0.0, 0.0, 0.0, 0.0, 0.0, 3.25, 3.25, 2.93, 0.0, 0.0, 0.0, 0.0, 0.0, 0.0, 0.0, 3.25, 10.0, 8.22, 8.53, 6.94, 5.6, 8.53, 8.55, 9.33, 9.54, 10.28, 10.52, 11.06, 11.18, 10.18, 10.32, 10.8, 12.42, 12.13, 14.95, 14.71, 15.34, 11.62, 11.51, 13.27, 13.01, 13.67, 13.25, 13.75, 14.28, 16.09, 20.12, 21.9, 24.11, -0.0, -5.65, -0.0, 2.06, 2.37, 2.45, 2.28, 4.52, 4.24, 4.65, 8.22, 11.03, 12.14, 11.99, 9.17, 7.36, 0.0, 0.0, 7.59, 9.83, 4.96, 5.7, 6.87, 7.59, 7.59, 10.8, 7.27, 7.59, 10.82, 10.82, 11.88, 12.27, 13.7, 13.28, 13.28, 14.03, 14.3, 14.3, 14.3, 14.3, 14.75, 15.2, 16.09, 16.09, 16.09, 15.2, 14.75, 13.57, 12.79, 10.12, 0.0, 0.0, 0.0, 0.0, 0.0, 0.0, 0.0, 0.0, 0.0, 0.0, 0.0, 0.0, 0.0, 0.0, 2.97, 4.6, 4.6, 3.39, 3.68, 3.53, 5.0, 7.9, 9.83, 9.83, 8.49, 9.64, 10.52, 10.73, 10.62, 10.32, 12.72, 13.67, 10.23, 10.65, 12.0, 12.13, 13.57, 10.6, 11.68, 12.85, 13.23, 13.67, 13.21, 13.32, 13.78, 14.3, 14.99, 16.24, 19.19, 14.79, -2.72, -0.0, -0.0, -0.0, 2.21, 4.81, 5.48, 10.43, 11.16, 12.52, 11.87, 12.79, 10.73, 9.48, 9.16, 8.31, 7.9, 8.23, 9.83, 3.82, 5.1, 5.95, 5.52, 6.97, 7.27, 8.58, 11.88, 11.88, 11.88, 12.27, 12.27, 13.28, 13.28, 13.28, 14.03, 14.3, 14.3, 14.75, 14.75, 15.2, 16.09, 16.54, 16.54, 16.54, 15.78, 15.18, 12.65, 10.75, 7.0, 0.0, 0.0, 0.0, 0.0, 0.0, 0.0, 0.0, 0.0, 0.0, 0.0, 0.0, 0.0, 0.0, 0.0, 0.0, 0.0, 0.0, 0.0, 0.0, 0.0, 4.8, 8.4, 8.94, 8.94, 8.94, 8.77, 9.83, 10.28, 9.75, 9.13, 8.49, 6.87, 6.98, 9.54, 9.1, 12.47, 11.44, 9.65, 10.62, 11.45, 11.45, 11.84, 11.84, 12.01, 11.62, 10.47, 11.44, 14.99, 16.92, 11.26, 7.59, -0.0, 3.07, 5.09, 7.0, 9.39, 13.02, 15.2, 12.39, 8.85, 3.53, 0.0, 7.82, 8.73, 7.85, 8.22, 8.59, 8.38, 10.28, 7.27, 6.42, 6.17, 6.71, 8.94, 8.94, 13.44, 12.39, 11.88, 12.27, 12.27, 12.27, 12.27, 12.27, 13.28, 14.03, 14.75, 14.75, 14.75, 15.2, 15.65, 16.09, 16.54, 16.99, 16.66, 15.36, 14.94, 12.87, 11.38, 9.17, 5.23, 0.0, 0.0, 0.0, 0.0, 0.0, 0.0, -2.5, -2.28, 0.0, 0.0, 0.0, 0.0, 3.11, 0.0, 0.0, 0.0, 0.0, 0.0, 0.0, 6.64, 8.49, 8.49, 8.49, 8.24, 8.33, 8.94, 8.77, 8.48, 8.94, 7.89, 4.71, 6.01, 9.64, 11.28, 10.88, 8.99, 8.93, 9.6, 8.93, 9.2, 9.86, 9.21, 10.73, 10.75, 12.86, 13.99, 15.01, 14.26, 8.53, 12.13, 13.97, 15.43, 14.75, 10.75, 13.99, 16.09, 14.39, 8.18, 4.1, 0.0, 0.0, 3.82, 5.7, 7.59, 8.24, 7.59, 8.8, 10.28, 10.08, 8.55, 7.59, 10.0, 10.0, 13.86, 13.86, 12.79, 12.87, 12.87, 13.28, 12.27, 12.65, 11.44, 12.79, 14.47, 14.75, 15.2, 15.2, 15.65, 15.65, 15.65, 16.54, 16.99, 16.66, 15.36, 12.87, 12.87, 11.38, 8.93, 0.0, 0.0, 0.0, 0.0, -5.23, -4.12, -3.33, -2.65, -4.52, -2.17, 0.0, 0.0, 0.0, 0.0, -3.25, -2.6, -2.17, 0.0, 2.69, 4.2, 8.0, 8.94, 8.49, 8.49, 8.94, 8.94, 9.11, 9.21, 9.29, 9.39, 7.51, 5.06, 6.17, 7.9, 10.4, 10.38, 8.82, 8.43, 8.43, 7.68, 6.91, 8.48, 8.85, 10.28, 11.18, 12.98, 11.58, 11.6, 10.76, 10.51, 11.6, 11.68, 11.77, 13.8, 14.75, 14.75, 15.18, 13.19, 11.88, 9.17, 7.27, 0.0, 6.44, 6.7, 6.7, 6.58, 7.68, 9.64, 10.58, 11.18, 10.73, 11.18, 11.18, 7.69, 13.15, 14.3, 13.88, 13.59, 13.59, 13.57, 12.27, 12.65, 13.19, 14.31, 15.2, 15.2, 15.2, 15.2, 15.2, 15.65, 16.09, 16.54, 16.05, 15.61, 14.39, 13.42, 12.16, 11.06, 5.09, 0.0, 0.0, 0.0, -5.51, -4.23, -6.64, -5.65, -5.09, -3.96, -2.06, -2.83, -4.6, -3.39, -3.25, -3.11, -4.2, 0.0, 0.0, 4.0, 8.4, 8.48, 8.48, 8.91, 8.91, 9.11, 9.54, 9.64, 9.7, 9.83, 9.13, 7.87, 7.27, 7.59, 8.94, 9.58, 9.6, 9.2, 8.8, 7.81, 6.45, 6.11, 6.63, 9.13, 11.18, 12.22, 8.56, 9.47, 10.39, 10.87, 11.86, 11.94, 13.18, 15.38, 13.99, 14.18, 13.88, 13.32, 11.5, 10.38, 10.08, 9.55, 7.27, 7.59, 8.22, 8.73, 8.43, 9.7, 10.62, 11.03, 10.6, 10.96, 10.96, 6.2, 6.2, 11.53, 14.3, 13.59, 13.59, 14.11, 13.57, 13.7, 11.8, 13.19, 14.75, 15.65, 15.65, 15.2, 16.99, 14.75, 15.65, 15.34, 14.75, 14.84, 15.61, 14.53, 13.76, 10.75, 7.4, 4.38, 0.0, 0.0, 0.0, -4.23, -6.64, -5.65, -5.51, -4.95, -3.96, -4.4, -4.66, -5.06, -5.0, -3.82, -2.49, 0.0, 0.0, 3.11, 6.95, 8.18, 7.81, 7.81, 7.81, 8.8, 9.64, 9.7, 9.7, 9.83, 10.28, 9.64, 10.41, 10.96, 10.0, 9.6, 9.6, 8.55, 7.28, 6.79, 5.59, 5.1, 4.44, 2.39, 0.0, 3.36, 5.37, 7.44, 8.42, 9.24, 9.49, 8.97, 10.75, 14.1, 15.99, 13.57, 13.88, 13.15, 11.5, 11.03, 10.08, 9.96, 9.58, 7.9, 8.58, 9.3, 9.45, 10.14, 11.18, 11.71, 10.09, 9.67, 9.67, 2.72, 5.15, 7.13, 11.53, 13.86, 13.86, 14.3, 14.3, 14.55, 13.7, 13.19, 13.59, 15.18, 15.65, 15.65, 15.2, 14.75, 14.75, 15.65, 14.42, 16.12, 15.61, 14.39, 14.51, 9.17, 9.17, 5.23, 3.9, 3.33, 0.0, 0.0, 0.0, -2.87, -2.47, -2.4, -2.15, -3.14, -3.68, -2.95, -1.67, -0.89, -0.93, 0.0, 0.0, 1.11, 2.6, 5.46, 6.95, 6.64, 6.64, 8.4, 8.72, 8.91, 9.26, 8.87, 9.39, 10.73, 9.83, 10.14, 9.6, 9.2, 8.55, 7.68, 7.68, 5.44, 5.53, 4.74, 2.97, -3.25, -11.62, -4.98, -1.34, 0.0, 1.45, 2.85, 1.69, 2.28, 4.95, 13.42, 12.82, 13.29, 13.2, 13.7, 13.01, 11.71, 10.96, 9.55, 9.2, 8.73, 9.2, 9.6, 10.09, 10.68, 11.46, 11.61, 9.82, 8.93, 8.93, 2.28, 2.28, 4.38, 7.13, 11.09, 13.86, 13.86, 14.3, 14.75, 14.9, 14.47, 13.59, 15.18, 15.65, 15.65, 15.65, 14.75, 14.75, 12.96, 14.75, 16.12, 14.79, 13.23, 9.66, 8.74, 8.74, 5.98, 6.31, 6.47, 2.94, 2.94, 0.0, 0.0, 0.0, 0.0, 0.0, 0.0, -1.43, -1.16, 0.0, 0.0, 0.0, 0.0, 0.0, 0.78, 1.76, 4.4, 5.9, 5.63, 6.64, 6.32, 8.0, 8.3, 8.91, 9.74, 8.87, 10.18, 10.28, 9.96, 9.04, 8.54, 8.18, 6.95, 5.9, 4.6, 5.72, 6.01, 5.9, -0.0, -8.22, -2.13, -1.26, -4.5, -5.2, -1.87, -2.4, -12.01, 0.0, 9.66, 11.88, 12.52, 13.27, 13.97, 14.16, 13.23, 11.46, 10.18, 9.33, 9.2, 8.93, 9.32, 10.61, 10.19, 11.03, 10.8, 9.42, 8.93, 8.93, 1.96, 1.96, 3.81, 3.81, 7.13, 11.09, 13.44, 14.3, 14.75, 15.2, 15.2, 14.9, 14.75, 15.18, 15.65, 15.65, 15.2, 14.75, 14.75, 16.05, 15.19, 13.23, 11.38, 9.66, 8.74, 9.2, 8.97, 7.4, 5.23, 5.37, 4.79, 2.47, 2.47, 2.16, 2.11, 0.0, 0.0, 0.0, 0.0, 0.0, 0.85, 0.75, 0.67, 0.67, 0.64, 1.95, 3.25, 3.65, 4.2, 5.36, 6.01, 6.79, 7.28, 8.48, 8.48, 9.74, 9.54, 10.73, 9.6, 8.18, 7.82, 7.96, 6.64, 6.64, 6.64, 7.21, 7.21, 7.68, 10.08, 11.62, 10.73, 9.6, 12.21, 0.0, -12.07, -13.57, -17.53, -17.97, -12.33, 3.79, 10.75, 13.48, 14.56, 14.07, 13.37, 11.21, 9.92, 9.24, 9.03, 9.58, 9.3, 9.53, 9.36, 8.53, 9.3, 9.3, 9.3, 9.3, 1.96, 1.96, 1.96, 3.36, 3.81, 7.13, 11.44, 13.88, 14.47, 14.99, 15.2, 15.2, 15.65, 15.65, 15.65, 15.65, 15.2, 14.75, 15.2, 15.69, 15.19, 12.87, 10.75, 9.49, 10.33, 10.89, 11.17, 7.8, 7.6, 5.09, 4.54, 4.54, 4.01, 2.05, 2.05, 1.83, 1.78, 1.63, 1.43, 1.16, 0.97, 0.85, 0.75, 0.69, 0.62, 1.95, 3.11, 3.49, 4.0, 5.1, 4.83, 6.01, 7.28, 8.06, 8.6, 8.6, 9.16, 10.2, 10.18, 6.32, 6.79, 7.76, 8.72, 7.44, 6.98, 7.64, 8.15, 8.4, 9.45, 10.22, 11.62, 11.99, 19.99, -0.0, -0.0, -6.95, -14.3, -16.54, -17.1, -7.8, 12.65, 14.19, 13.8, 13.7, 13.32, 11.54, 10.43, 9.9, 9.81, 9.42, 9.77, 9.02, 8.07, 7.41, 7.56, 8.22, 9.08, 9.08, 1.72, 1.72, 1.72, 1.72, 3.36, 3.36, 7.13, 11.44, 14.47, 14.9, 14.99, 15.43, 15.65, 15.65, 15.65, 15.65, 15.65, 14.75, 15.65, 15.27, 13.76, 13.59, 11.38, 10.43, 10.75, 11.7, 10.89, 9.67, 7.8, 7.6, 6.34, 4.42, 3.9, 3.9, 3.9, 3.49, 1.78, 1.68, 1.48, 1.28, 1.02, 0.89, 0.0, 0.0, 0.0, 1.44, 3.11, 2.97, 4.6, 4.6, 5.59, 5.31, 6.63, 7.6, 8.17, 8.17, 7.85, 8.73, 10.28, 9.2, 6.01, 7.28, 8.24, 8.0, 6.87, 7.96, 9.04, 9.96, 9.33, 9.04, 9.97, 9.71, 14.45, 15.8, 8.4, -0.0, -12.52, -12.52, -13.19, 0.0, 16.09, 14.3, 13.86, 13.25, 12.39, 10.73, 9.6, 9.81, 9.76, 9.69, 9.02, 7.78, 7.54, 6.92, 7.14, 6.97, 8.22, 8.22, 1.72, 1.72, 1.72, 1.72, 1.72, 3.01, 3.36, 7.36, 11.8, 14.9, 14.11, 14.11, 15.34, 15.34, 15.65, 15.65, 15.65, 15.2, 15.2, 15.27, 13.39, 14.13, 13.59, 11.7, 11.06, 9.77, 10.61, 9.67, 9.67, 9.42, 6.69, 6.52, 5.49, 5.49, 3.9, 3.49, 3.49, 1.73, 1.58, 1.33, 0.0, 0.0, 0.0, 0.0, 0.0, 0.85, 2.23, 3.27, 3.44, 4.2, 4.0, 5.7, 5.31, 7.2, 8.17, 8.17, 8.41, 7.6, 8.94, 9.83, 9.54, 7.07, 8.67, 8.05, 7.64, 8.21, 9.63, 9.97, 10.2, 9.2, 11.18, 9.17, 12.26, 18.72, 19.99, -0.0, -0.0, 16.99, 14.75, 12.07, 13.99, 15.05, 15.2, 14.81, 12.52, 10.0, 9.81, 9.52, 10.56, 10.01, 9.56, 7.82, 7.36, 6.94, 7.14, 6.86, 6.86, 6.86, 1.53, 1.53, 1.72, 1.72, 1.53, 1.53, 1.53, 3.47, 7.59, 13.19, 14.11, 14.11, 14.53, 15.34, 15.34, 15.65, 15.65, 15.65, 15.65, 14.84, 13.02, 13.39, 12.01, 13.59, 11.7, 11.38, 10.05, 10.61, 9.67, 9.67, 8.43, 7.6, 7.4, 5.81, 5.65, 5.65, 3.9, 3.49, 1.73, 1.48, 0.0, 0.0, 0.0, 0.0, 0.0, 1.84, 3.36, 3.44, 4.0, 4.2, 4.2, 4.5, 6.95, 8.18, 8.22, 8.17, 7.97, 8.05, 8.94, 8.87, 9.13, 10.28, 8.67, 8.4, 7.81, 8.4, 9.75, 10.47, 10.23, 10.18, 10.73, 12.71, 12.74, 15.88, 21.1, 21.2, -0.0, 5.94, 11.38, 11.87, 13.01, 15.2, 15.15, 13.99, 11.37, 10.63, 10.43, 10.18, 9.77, 9.69, 9.59, 8.79, 7.63, 7.43, 6.86, 6.71, 6.86, 6.86, 1.53, 1.53, 1.53, 1.53, 1.53, 1.53, 1.53, 1.53, 3.93, 8.85, 12.16, 12.16, 13.42, 14.11, 15.34, 15.34, 15.65, 15.65, 15.18, 14.84, 14.84, 13.02, 11.38, 13.23, 11.7, 11.7, 11.38, 10.33, 10.61, 9.42, 8.43, 8.43, 7.6, 7.6, 6.72, 6.72, 5.23, 3.59, 3.59, 1.73, 0.0, 0.0, 1.07, 0.89, 1.84, 3.51, 4.25, 3.88, 3.44, 3.44, 4.2, 5.28, 6.14, 7.95, 8.8, 8.14, 8.17, 8.05, 7.6, 8.36, 8.63, 8.4, 10.73, 8.0, 9.8, 8.82, 10.28, 9.63, 9.6, 10.28, 11.18, 11.62, 13.59, 13.81, 15.47, 19.78, 16.76, -0.0, 3.9, 9.67, 12.35, 14.75, 14.14, 12.39, 10.85, 10.63, 10.79, 10.37, 9.77, 9.36, 8.85, 8.3, 7.63, 8.15, 7.96, 7.14, 5.75, 5.75, 0.0, 0.0, 1.53, 1.53, 1.53, 1.53, 1.53, 1.53, 1.42, 4.52, 8.85, 12.16, 12.16, 13.03, 14.11, 14.9, 15.34, 15.18, 15.18, 15.18, 13.02, 13.02, 13.02, 12.52, 12.87, 11.38, 11.38, 9.66, 8.51, 8.51, 7.4, 6.52, 8.43, 7.6, 6.9, 6.72, 6.72, 5.37, 3.69, 1.78, 1.63, 1.43, 3.21, 3.65, 4.6, 4.71, 4.6, 3.78, 3.61, 3.61, 4.2, 5.28, 6.88, 8.32, 9.74, 9.24, 8.67, 8.41, 8.01, 8.8, 8.0, 7.76, 9.76, 8.4, 8.55, 10.6, 10.05, 7.27, 7.68, 10.14, 11.18, 11.84, 12.27, 12.89, 11.42, 11.48, 12.4, 8.25, 10.43, 6.2, 10.62, 14.26, 14.69, 12.38, 10.6, 9.89, 10.48, 10.47, 9.97, 9.69, 8.85, 8.32, 7.38, 7.89, 8.15, 7.43, 6.44, 6.44, 0.0, 0.0, 0.0, 0.0, 0.0, 0.0, 0.0, 0.0, 0.0, 0.0, 4.66, 9.12, 12.52, 13.42, 13.42, 14.11, 14.11, 14.11, 13.59, 13.59, 13.99, 13.99, 13.99, 12.52, 12.52, 11.06, 11.06, 11.38, 9.92, 8.51, 8.51, 7.4, 6.52, 7.4, 7.4, 6.72, 6.72, 5.37, 5.37, 3.59, 3.39, 2.91, 3.68, 3.87, 4.66, 4.71, 4.8, 5.57, 5.57, 4.5, 5.28, 5.78, 6.58, 7.96, 9.45, 10.1, 10.47, 10.04, 9.26, 9.06, 8.0, 8.48, 9.32, 8.58, 9.2, 10.02, 10.68, 8.82, 3.65, 9.2, 11.18, 12.52, 12.52, 11.6, 0.0, 2.52, 6.8, 8.4, 7.2, 10.75, 12.07, 13.36, 14.19, 12.6, 10.41, 10.37, 10.37, 10.52, 10.43, 10.09, 10.37, 9.17, 8.1, 7.78, 7.69, 7.2, 6.67, 6.67, 0.0, 0.0, 0.0, 0.0, 0.0, 0.0, 0.0, 0.0, 0.0, 0.0, 0.0, 7.82, 10.75, 13.42, 14.39, 13.99, 14.42, 14.11, 14.11, 14.11, 13.99, 13.99, 12.52, 12.52, 12.52, 11.06, 10.75, 11.06, 11.38, 8.28, 8.28, 7.2, 7.2, 6.34, 5.81, 7.4, 6.72, 6.72, 5.37, 5.37, 5.09, 4.52, 5.08, 3.99, 3.91, 4.4, 4.9, 6.42, 7.2, 7.36, 6.2, 5.21, 6.23, 7.61, 8.76, 9.86, 10.18, 10.41, 10.45, 9.54, 8.4, 8.56, 8.49, 8.79, 8.4, 9.33, 10.25, 10.73, 7.81, 6.95, 11.06, 12.0, 11.26, 7.13, -4.81, -5.65, 0.0, 5.41, 8.0, 8.33, 13.02, 12.96, 13.37, 12.56, 10.94, 11.64, 10.65, 9.8, 11.53, 12.74, 12.33, 11.16, 8.73, 7.43, 7.62, 7.2, 7.43, 7.43, 0.0, 0.0, 0.0, 0.0, 0.0, 0.0, 0.0, 0.0, 0.0, 0.0, 0.0, 0.0, 9.12, 12.16, 13.42, 13.99, 13.99, 13.99, 13.99, 13.42, 13.42, 13.42, 13.42, 12.52, 12.52, 11.06, 10.75, 10.43, 10.75, 8.05, 8.28, 8.05, 7.0, 6.16, 6.34, 5.65, 6.72, 6.72, 6.72, 6.9, 6.72, 5.64, 4.81, 3.98, 2.83, 3.61, 4.55, 6.85, 6.4, 6.76, 5.51, 4.73, 5.52, 7.27, 8.18, 9.2, 9.96, 10.84, 10.44, 10.45, 9.11, 8.19, 8.49, 7.82, 7.82, 7.07, 8.3, 9.83, 10.14, 9.97, 8.8, 10.73, 11.2, 10.3, 4.23, -2.59, -2.59, 0.0, 4.89, 8.9, 13.24, 16.54, 15.11, 13.59, 13.99, 13.97, 13.02, 14.11, 13.67, 13.41, 13.41, 12.45, 10.3, 7.78, 7.43, 7.43, 6.44, 6.44, 0.0, 0.0, 0.0, 0.0, 0.0, 0.0, 0.0, 0.0, 0.0, 0.0, 0.0, 0.0, 1.63, 11.06, 13.42, 13.99, 13.99, 14.39, 14.39, 13.39, 13.39, 12.57, 12.22, 12.22, 11.06, 11.06, 10.75, 10.12, 11.38, 7.59, 8.05, 8.28, 7.2, 7.0, 6.16, 5.65, 5.65, 7.4, 6.72, 6.72, 6.72, 5.81, 5.15, 3.21, 2.95, 2.94, 3.14, 4.66, 5.33, 5.6, 4.31, 4.0, 5.26, 6.65, 7.59, 8.38, 9.2, 10.18, 10.44, 10.91, 10.45, 8.14, 8.17, 7.76, 7.82, 6.79, 6.44, 9.03, 10.18, 10.58, 9.64, 9.97, 12.27, 12.36, 13.53, 11.9, 5.23, 2.06, 1.61, 4.81, 16.79, 16.76, 16.54, 15.87, 15.9, 15.2, 15.61, 14.79, 14.03, 12.96, 12.96, 12.58, 9.17, 7.54, 6.94, 6.94, 5.4, 5.4, 0.0, 0.0, 0.0, 0.0, 0.0, 0.0, 0.0, 0.0, 0.0, 0.0, 0.0, 0.0, 0.0, 1.83, 11.06, 13.42, 13.99, 13.02, 13.58, 13.1, 13.39, 13.39, 12.57, 12.22, 11.87, 11.87, 11.87, 10.12, 9.8, 9.39, 7.59, 8.05, 7.2, 5.09, 4.42, 6.34, 5.65, 7.4, 7.4, 6.72, 6.72, 4.62, 4.11, 3.18, 2.82, 3.06, 3.14, 4.38, 4.38, 4.47, 3.93, 4.5, 5.26, 6.65, 7.59, 8.18, 8.66, 9.55, 10.41, 10.91, 10.47, 7.54, 8.82, 7.53, 7.42, 7.03, 6.82, 7.6, 9.83, 9.96, 10.08, 10.73, 11.28, 11.64, 13.59, 15.74, 8.18, 3.82, 0.0, 4.38, 16.05, 14.94, 15.78, 16.54, 16.33, 15.53, 13.46, 12.45, 10.12, 9.17, 8.85, 6.7, 5.6, 5.8, 5.27, 6.08, 5.2, 5.2, 0.0, 0.0, 0.0, 0.0, 0.0, 0.0, 0.0, 0.0, 0.0, 0.0, 0.0, 0.0, 0.0, 1.47, 8.43, 12.22, 13.02, 13.58, 12.73, 13.1, 13.1, 12.71, 12.36, 12.36, 10.75, 11.87, 11.87, 10.43, 10.43, 9.22, 7.59, 6.8, 7.0, 4.3, 4.42, 4.42, 6.34, 5.65, 5.81, 5.23, 5.23, 4.75, 4.37, 3.41, 3.06, 2.82, 3.04, 4.38, 4.38, 4.64, 4.12, 5.21, 5.94, 6.95, 7.61, 8.18, 9.05, 9.55, 9.81, 10.47, 11.57, 8.49, 8.05, 7.6, 6.8, 6.8, 7.35, 7.53, 9.39, 10.14, 9.04, 11.28, 11.45, 11.99, 11.88, 14.64, 12.31, 8.83, 0.0, -0.0, 7.2, 12.52, 16.31, 16.76, 14.13, 12.33, 11.32, 8.93, 6.73, 4.39, 3.32, 0.0, 0.0, 0.0, 0.0, 4.65, 4.48, 4.48, 0.0, 0.0, 0.0, 0.0, 0.0, 0.0, 0.0, 0.0, 0.0, 0.0, 0.0, 0.0, 0.0, 0.0, 1.34, 8.83, 12.37, 12.37, 12.37, 11.88, 12.22, 12.22, 12.36, 12.36, 12.02, 10.75, 10.75, 11.52, 10.43, 10.75, 7.82, 6.8, 6.8, 5.99, 4.3, 4.3, 4.42, 3.9, 4.01, 3.59, 3.59, 3.49, 4.37, 3.85, 3.18, 2.08, 3.29, 3.53, 4.24, 4.99, 5.41, 6.05, 6.62, 7.28, 7.61, 7.87, 9.05, 9.55, 9.81, 11.48, 11.57, 10.73, 8.05, 7.63, 7.6, 7.6, 6.8, 7.95, 8.87, 9.32, 9.21, 11.03, 11.6, 11.5, 10.02, 13.29, 14.45, 14.42, 11.7, -0.0, -0.0, 11.38, 16.31, 15.9, 12.22, 10.19, 8.43, 6.85, 4.65, 2.37, 0.0, 0.0, -1.64, -3.19, -2.93, -1.33, 1.09, 1.09, 0.0, 0.0, 0.0, 0.0, 0.0, 0.0, 0.0, 0.0, 0.0, 0.0, 0.0, 0.0, 0.0, 0.0, 0.0, 2.98, 10.75, 12.37, 11.54, 11.88, 11.88, 12.22, 12.22, 11.38, 11.06, 9.73, 10.75, 10.43, 10.43, 10.75, 7.82, 7.82, 6.6, 5.81, 5.81, 4.18, 3.79, 3.79, 2.0, 2.0, 3.9, 3.49, 3.39, 2.63, 2.37, 2.08, 2.37, 3.41, 4.58, 5.8, 6.24, 6.51, 6.62, 7.28, 7.28, 7.87, 8.76, 9.55, 9.81, 11.48, 12.06, 11.16, 8.05, 7.31, 7.4, 8.0, 7.2, 7.95, 8.87, 8.94, 10.58, 10.04, 11.5, 10.73, 13.19, 14.42, 13.97, 14.66, 15.49, 15.17, 19.22, 13.99, 14.75, 12.79, 9.8, 8.23, 6.67, 4.48, 3.34, 1.16, 0.0, -1.28, -2.82, -4.75, -5.99, -4.24, 0.0, 0.0, 0.0, 0.0, 0.0, 0.0, 0.0, 0.0, 0.0, 0.0, 0.0, 0.0, 0.0, 0.0, 0.0, 0.0, 0.0, 1.47, 10.75, 11.54, 11.54, 11.88, 11.88, 11.88, 11.38, 11.38, 10.02, 9.73, 9.73, 9.22, 9.22, 10.75, 9.12, 7.82, 6.6, 5.81, 5.81, 3.58, 3.58, 1.89, 1.94, 2.0, 3.9, 3.9, 3.3, 1.83, 1.14, 1.07, 2.28, 3.6, 4.43, 6.21, 6.48, 6.57, 6.51, 6.95, 7.28, 7.87, 8.93, 9.55, 10.44, 11.04, 12.06, 12.07, 8.49, 7.52, 7.2, 8.0, 7.53, 8.06, 8.87, 8.94, 9.39, 10.04, 11.2, 13.7, 14.31, 14.03, 13.81, 12.24, 12.7, 13.25, 12.9, 11.33, 11.99, 10.12, 8.85, 6.44, 5.18, 3.21, 2.28, 1.2, 0.0, -1.33, -2.93, -4.93, -6.94, -5.99, -5.4, -3.82, 0.0, 0.0, 0.0, 0.0, 0.0, 0.0, 0.0, 0.0, 0.0, 0.0, 0.0, 0.0, 0.0, -1.17, 0.0, 0.0, 4.66, 10.75, 10.75, 11.06, 11.06, 11.88, 10.18, 10.47, 9.09, 7.54, 8.18, 8.18, 9.22, 9.22, 9.12, 7.59, 6.6, 4.05, 3.58, 3.58, 1.77, 1.89, 1.89, 1.94, 1.94, 2.0, 1.83, 1.71, 2.13, 2.1, 2.28, 4.65, 6.0, 6.67, 6.72, 6.84, 6.79, 6.95, 7.56, 8.09, 8.93, 9.55, 10.88, 11.04, 12.05, 12.07, 10.73, 7.15, 7.21, 8.0, 7.81, 7.85, 8.44, 8.49, 8.94, 10.28, 11.09, 12.5, 17.43, -0.0, 0.0, 5.09, 9.69, 11.95, 11.17, 9.62, 9.42, 9.48, 7.19, 5.27, 3.29, 2.37, 2.62, 1.38, 0.0, 0.0, -1.77, -3.96, -3.96, -5.4, -5.99, -5.4, 0.0, 0.0, 0.0, 0.0, 0.0, 0.0, 0.0, 0.0, 0.0, 0.0, 0.0, 0.0, -1.17, -1.17, -1.17, 0.0, 2.89, 7.82, 9.89, 9.89, 10.18, 10.18, 10.18, 9.09, 7.76, 7.54, 7.32, 8.18, 8.94, 8.94, 7.59, 7.59, 5.48, 4.66, 3.47, 1.83, 1.58, 1.77, 1.89, 1.89, 1.94, 1.94, 1.83, 1.33, 2.6, 3.47, 5.15, 6.4, 7.36, 7.44, 6.96, 7.1, 7.18, 7.61, 7.56, 8.09, 8.93, 10.05, 10.88, 11.02, 12.05, 12.07, 9.39, 8.49, 7.94, 7.28, 6.6, 7.53, 8.45, 8.49, 8.94, 9.39, 11.51, 11.64, 14.57, -0.0, -13.02, 0.0, 9.0, 9.39, 9.39, 10.02, 11.38, 8.94, 4.98, 1.61, 2.81, 1.43, 1.55, 1.77, 2.06, 0.0, 0.0, 0.0, -3.04, -5.4, -5.4, -5.99, 0.0, 0.0, 0.0, 0.0, 0.0, 0.0, 0.0, 0.0, 0.0, 0.0, 0.0, 0.0, -1.08, -1.08, -1.13, 0.0, 2.89, 7.16, 8.85, 9.89, 9.89, 9.89, 8.83, 8.29, 7.0, 7.76, 5.81, 6.4, 8.94, 7.36, 7.36, 5.48, 5.48, 2.43, 2.02, 1.77, 1.77, 1.53, 1.58, 1.63, 1.63, 1.89, 1.77, 2.72, 3.68, 4.55, 6.8, 8.05, 7.59, 7.68, 8.15, 7.93, 7.59, 7.28, 7.87, 8.27, 8.93, 10.05, 10.44, 11.02, 12.05, 12.07, 12.52, 9.39, 8.05, 8.05, 7.4, 8.6, 8.01, 8.94, 8.9, 9.35, 10.73, 10.68, 11.64, 15.38, 15.99, 16.48, 12.52, 8.53, 8.79, 11.52, 14.62, 11.38, 0.0, 0.0, 0.0, 2.13, 2.54, 5.8, 8.85, 11.2, 11.2, 8.85, 0.0, 0.0, -3.82, -3.82, 0.0, 0.0, 0.0, 0.0, 0.0, 0.0, 0.0, 0.0, 0.0, 0.0, 0.0, -1.13, -1.05, -1.05, -1.13, 0.0, 2.64, 5.99, 7.82, 8.85, 9.12, 8.06, 8.06, 6.8, 6.8, 5.34, 5.81, 6.4, 6.4, 7.13, 7.13, 5.15, 4.52, 4.52, 2.02, 1.72, 1.72, 1.48, 1.53, 1.58, 1.77, 1.58, 3.01, 2.72, 3.82, 6.0, 7.06, 7.28, 7.68, 7.44, 7.89, 7.64, 6.95, 7.21, 8.09, 8.09, 9.47, 10.05, 10.72, 11.02, 11.56, 12.06, 11.62, 10.28, 8.49, 8.05, 8.38, 8.17, 8.33, 9.35, 9.35, 8.9, 10.73, 9.64, 11.5, 12.79, 16.63, 19.04, 14.88, 11.53, 10.52, 12.96, 18.08, 16.45, -8.85, -3.82, 0.0, 4.1, 9.17, 12.96, 12.52, 12.52, 12.52, 12.52, 0.0, -5.4, -5.4, -5.4, -1.04, -1.04, 0.0, 0.0, 0.0, 0.0, 0.0, 0.0, 0.0, 0.0, 0.0, -1.05, -1.05, -1.05, -1.13, 0.0, 1.34, 4.66, 7.16, 7.82, 8.06, 8.06, 6.8, 6.8, 4.81, 5.34, 5.18, 5.63, 6.2, 6.2, 6.0, 6.0, 4.24, 4.38, 3.93, 1.66, 1.48, 1.48, 1.48, 1.48, 1.53, 3.01, 4.24, 4.48, 5.2, 5.8, 7.36, 6.85, 7.2, 7.36, 7.64, 7.9, 6.95, 7.51, 7.87, 8.09, 9.47, 9.83, 10.72, 11.02, 11.56, 12.05, 12.07, 12.07, 9.39, 8.05, 8.41, 8.17, 8.8, 8.8, 8.77, 8.77, 9.39, 10.23, 10.96, 11.76, 12.99, 18.54, 18.54, 15.78, 12.65, 14.59, 19.55, 21.46, -13.41, -9.17, 0.0, 12.96, 12.3, 12.3, 11.87, 11.2, 10.8, 12.52, 0.0, 0.0, 0.0, 0.0, -1.04, -1.04, 0.0, 0.0, 0.0, 0.0, 0.0, 0.0, 0.0, -1.1, -1.1, -1.05, -1.05, -1.05, -1.13, 0.0, 1.34, 4.24, 5.99, 7.16, 7.38, 6.17, 6.17, 6.17, 4.81, 4.81, 5.18, 5.63, 6.2, 6.0, 6.0, 6.0, 4.24, 3.68, 3.68, 1.66, 1.43, 1.48, 1.48, 1.48, 2.91, 4.24, 4.81, 5.2, 5.75, 6.21, 6.9, 6.9, 7.69, 7.54, 7.48, 7.27, 6.62, 7.51, 7.87, 8.93, 9.07, 9.83, 10.67, 10.88, 11.11, 11.61, 12.05, 11.61, 11.62, 8.05, 8.49, 7.89, 8.63, 8.56, 9.03, 8.44, 9.39, 10.23, 10.68, 11.21, 12.21, 12.74, 17.19, 17.36, 16.22, 16.31, 21.57, 18.97, -0.0, -0.0, 5.8, 7.19, 7.19, 6.94, 5.8, 9.67, 8.85, 8.53, -0.0, 0.0, 0.0, 0.0, -1.04, -1.04, -1.08, 0.0, 0.0, 0.0, 0.0, -1.06, -1.1, -1.1, -1.1, -1.02, -1.05, -1.05, 0.0, 0.0, 1.23, 2.89, 5.99, 5.99, 5.99, 6.17, 6.17, 6.17, 4.81, 4.81, 4.66, 5.02, 5.46, 6.2, 6.0, 4.1, 3.56, 3.56, 1.61, 1.61, 1.43, 1.43, 2.91, 2.81, 4.1, 5.27, 5.8, 5.98, 5.75, 6.21, 6.67, 6.67, 7.43, 7.54, 7.48, 6.95, 6.92, 7.27, 7.87, 8.54, 9.07, 9.83, 10.46, 10.88, 11.11, 11.11, 12.05, 12.06, 11.16, 8.49, 8.05, 7.42, 8.33, 7.89, 8.06, 8.29, 8.94, 9.83, 10.68, 11.0, 11.76, 12.17, 13.19, 15.83, 18.02, 17.88, 20.85, 20.46, -0.0, -0.0, 2.63, 2.63, 3.14, 4.1, 8.53, 7.9, 8.22, 8.53, 5.2, -0.0, -0.0, -0.0, -2.06, -2.06, -1.08, -1.08, -1.11, -1.03, -1.03, -1.06, -2.11, -2.18, -2.18, -2.18, -1.13, 0.0, 0.0, 0.0, 0.0, 2.64, 4.24, 5.99, 5.99, 6.17, 6.17, 6.17, 4.81, 4.37, 4.66, 5.02, 5.46, 6.2, 4.24, 3.56, 3.56, 1.55, 1.55, 3.04, 3.04, 3.04, 4.1, 4.1, 5.27, 6.3, 5.8, 6.21, 5.75, 6.21, 6.44, 6.44, 7.18, 7.26, 7.18, 6.95, 6.65, 7.27, 8.38, 8.54, 9.07, 9.72, 10.46, 10.84, 10.57, 11.11, 11.56, 12.05, 11.61, 9.39, 8.05, 8.41, 8.41, 7.85, 8.06, 8.77, 9.35, 9.83, 10.68, 11.0, 11.56, 11.8, 12.38, 12.38, 15.99, 19.16, 19.34, 25.93, -0.0, -0.0, -0.0, -0.0, 2.13, 6.21, 5.98, 8.22, 6.71, 6.2, 3.53, -0.0, -0.0, -0.0, -2.06, -2.06, -2.13, -2.13, -2.13, -2.2, -2.11, -2.11, -2.11, -2.11, -2.18, -1.1, -1.1, 0.0, 0.0, 0.0, 0.0, 2.64, 4.24, 5.31, 5.31, 5.48, 5.64, 5.64, 4.37, 4.37, 4.24, 4.52, 4.87, 5.46, 3.68, 3.68, 3.56, 3.04, 3.04, 2.93, 4.24, 5.6, 5.08, 5.08, 6.08, 6.08, 6.08, 5.4, 5.0, 5.4, 6.44, 6.44, 6.92, 6.98, 7.13, 7.27, 6.98, 6.92, 8.0, 8.54, 9.07, 9.32, 10.05, 10.24, 10.57, 10.66, 11.56, 12.01, 11.61, 10.28, 9.39, 8.87, 8.43, 8.0, 8.73, 8.77, 9.26, 9.83, 10.28, 10.56, 11.13, 11.34, 11.97, 12.1, 14.53, 18.14, 18.97, 23.14, -0.0, -3.38, -0.0, 2.13, 5.6, 5.4, 7.54, 7.26, 6.71, 4.8, 5.0, 3.53, 3.53, 3.53, -3.04, -3.04, -4.1, -3.14, -3.14, -3.25, -2.28, -2.11, -2.11, -1.1, -1.1, -1.1, 0.0, 0.0, 0.0, 0.0, 0.0, 2.43, 4.24, 5.48, 5.48, 5.48, 5.64, 5.64, 4.37, 4.24, 4.24, 4.11, 4.38, 4.71, 5.28, 3.68, 3.14, 3.04, 4.39, 4.24, 5.4, 5.4, 4.9, 6.08, 6.08, 6.08, 6.08, 5.4, 5.2, 5.6, 6.67, 6.44, 6.67, 7.13, 6.83, 6.95, 7.31, 7.27, 8.0, 8.54, 8.68, 9.32, 9.42, 10.24, 10.41, 10.66, 11.11, 12.01, 11.61, 10.73, 9.83, 9.36, 8.9, 8.9, 8.77, 8.58, 9.06, 9.8, 10.28, 10.56, 10.78, 10.92, 11.96, 12.39, 13.25, 15.9, 18.96, 19.57, 21.95, -4.38, 8.66, 9.67, 11.03, 11.21, 8.22, 5.98, 5.75, 5.0, 5.0, 2.6, 2.6, 2.6, -3.96, -3.96, -4.1, -4.1, -3.14, -3.25, -2.28, -2.11, -1.06, 0.0, 0.0, 0.0, 0.0, 0.0, 0.0, 0.0, 0.0, 2.43, 3.88, 5.48, 6.6, 5.04, 5.64, 5.64, 4.24, 4.24, 4.24, 4.11, 5.63, 4.38, 4.71, 4.71, 4.55, 4.39, 4.39, 5.4, 4.9, 4.9, 4.9, 5.86, 5.86, 5.86, 5.86, 5.86, 5.86, 5.6, 6.67, 6.44, 7.14, 7.13, 6.83, 6.95, 7.31, 7.15, 8.0, 8.15, 8.54, 8.91, 8.91, 9.63, 9.97, 10.13, 10.66, 11.56, 12.05, 11.62, 10.25, 9.81, 9.8, 9.8, 9.35, 8.77, 8.79, 9.6, 10.28, 10.12, 10.35, 10.84, 11.76, 12.39, 13.07, 13.01, 15.02, 15.03, 16.85, 7.4, 9.44, 7.9, 10.62, 10.84, 11.02, 9.3, 2.19, 2.82, 2.71, -0.0, -0.0, -0.0, -3.96, -3.96, -3.96, -3.14, -3.14, -2.13, -2.2, -1.06, 0.0, 0.0, 0.0, 0.0, 0.0, 0.0, 0.0, 0.0, 0.0, 2.43, 3.88, 5.48, 6.6, 5.04, 5.04, 5.04, 4.24, 4.24, 4.24, 4.11, 5.15, 5.63, 5.45, 6.0, 4.55, 5.27, 5.08, 4.9, 4.9, 4.72, 5.64, 5.64, 5.86, 5.86, 5.86, 5.64, 5.86, 5.6, 6.67, 6.44, 7.41, 7.42, 6.83, 6.95, 7.31, 7.23, 7.81, 8.0, 8.15, 8.91, 8.91, 9.13, 9.81, 10.11, 10.57, 11.11, 12.07, 11.61, 10.62, 10.25, 9.36, 8.9, 9.36, 8.9, 9.21, 9.54, 9.83, 10.23, 10.56, 10.84, 11.28, 12.14, 12.58, 12.51, 12.87, 10.73, 16.12, 10.58, 7.76, 5.54, 8.55, 10.65, 9.3, 7.59, 10.73, -0.0, -0.0, -0.0, -0.0, -0.0, -2.81, -2.81, -3.04, -3.14, -2.13, -2.13, -1.03, -1.06, 0.0, 0.0, 0.0, 0.0, 0.0, 0.0, 0.0, 0.0, 1.13, 1.23, 3.88, 5.04, 6.1, 5.04, 5.04, 5.04, 3.88, 4.24, 4.11, 4.11, 5.15, 4.98, 5.45, 5.27, 5.27, 5.27, 5.08, 4.9, 5.86, 5.64, 5.64, 5.64, 5.64, 5.64, 5.64, 5.64, 5.98, 5.98, 6.21, 6.21, 7.41, 7.42, 7.13, 7.27, 6.95, 7.59, 7.44, 7.61, 8.0, 8.4, 8.51, 9.13, 9.33, 9.97, 10.13, 11.11, 11.62, 12.06, 11.84, 10.93, 8.8, 7.89, 7.89, 8.46, 8.49, 8.94, 9.83, 9.39, 10.25, 10.6, 11.05, 11.28, 11.64, 11.62, 12.13, 10.8, 15.31, 11.65, 5.37, 7.19, 8.38, 10.28, 8.58, 6.86, 4.8, 4.8, 0.0, -10.28, -10.28, -10.28, -2.81, -2.81, -1.9, -1.9, -1.97, -1.97, -1.03, -1.03, 0.0, 0.0, 0.0, 0.0, 0.0, 1.05, 1.05, 1.05, 1.05, 1.13, 2.43, 5.19, 5.04, 5.04, 5.04, 5.04, 5.04, 4.11, 4.11, 4.11, 3.98, 4.98, 4.98, 5.27, 5.27, 5.08, 5.08, 5.86, 5.86, 5.64, 5.64, 5.43, 5.64, 5.64, 5.2, 5.2, 5.75, 5.75, 5.98, 6.67, 7.14, 6.86, 7.13, 6.83, 7.31, 7.95, 7.81, 7.44, 7.87, 8.0, 8.4, 8.51, 8.91, 9.54, 10.13, 10.66, 11.16, 11.61, 11.84, 10.77, 8.63, 7.42, 7.63, 8.29, 8.49, 8.94, 8.94, 8.94, 10.28, 11.15, 10.6, 10.58, 10.78, 10.99, 13.59, 11.96, 14.55, 14.54, 7.6, 12.87, 12.52, 11.02, 8.73, 6.86, 5.92, 3.39, 0.0, -4.6, -4.6, -4.6, -1.77, -1.77, -1.77, -1.77, -1.77, -1.83, -0.96, 0.0, 0.0, 0.0, 0.0, 0.0, 1.05, 1.05, 1.05, 1.05, 1.05, 1.13, 2.43, 4.0, 5.19, 5.04, 5.04, 3.88, 4.89, 4.89, 5.31, 3.98, 3.98, 4.98, 4.98, 4.81, 4.81, 4.65, 4.65, 5.86, 5.86, 5.64, 5.64, 5.43, 5.43, 5.2, 5.2, 5.0, 5.75, 5.52, 5.52, 6.15, 6.59, 6.59, 7.13, 6.83, 7.31, 7.68, 7.95, 7.81, 7.61, 7.87, 8.0, 8.4, 8.91, 9.07, 9.54, 10.21, 11.16, 11.61, 11.4, 10.81, 9.54, 7.21, 7.53, 8.24, 8.87, 8.94, 9.39, 8.99, 10.16, 10.73, 10.7, 10.58, 10.84, 11.03, 15.11, 17.64, 15.41, 15.01, 15.34, 11.72, 10.16, 9.48, 8.49, 7.65, 6.76, 5.75, 0.0, -3.25, -3.25, -3.25, -1.77, -1.77, -1.77, -1.77, -0.89, -0.89, 0.0, 0.0, 0.0, 0.0, 0.0, 0.0, 1.02, 1.05, 1.05, 1.05, 0.98, 1.05, 2.24, 4.0, 4.0, 5.19, 4.0, 3.88, 3.76, 4.89, 4.89, 4.74, 5.15, 4.98, 4.81, 4.81, 4.65, 4.65, 4.65, 4.48, 5.4, 5.2, 5.0, 5.0, 5.0, 5.0, 5.0, 5.0, 5.52, 5.52, 5.52, 6.15, 5.9, 6.31, 6.83, 6.83, 7.27, 7.68, 7.95, 7.81, 7.81, 7.87, 7.87, 8.0, 8.63, 9.07, 9.54, 10.13, 10.71, 11.18, 11.04, 10.81, 9.39, 7.71, 7.81, 8.24, 8.43, 8.94, 8.94, 8.73, 8.58, 9.79, 10.28, 10.69, 10.58, 11.2, 12.86, 17.69, 17.39, 13.28, 12.82, 10.18, 7.96, 8.12, 8.49, 8.22, 8.93, 6.71, 3.39, -4.6, -4.6, -4.6, -1.65, -1.65, -0.83, -0.83, -0.92, 0.0, 0.0, 0.0, 0.0, 0.0, 0.0, 0.0, 1.02, 1.05, 1.05, 1.05, 0.98, 0.98, 1.13, 2.43, 4.0, 4.0, 4.0, 3.58, 3.47, 4.89, 4.89, 4.74, 4.58, 4.58, 4.81, 4.65, 4.65, 4.65, 4.48, 4.48, 5.4, 5.2, 5.2, 5.0, 5.0, 5.0, 5.0, 5.35, 5.14, 5.14, 5.52, 5.9, 5.9, 6.31, 6.31, 6.83, 7.27, 7.31, 7.95, 7.95, 7.81, 7.61, 7.87, 7.87, 8.22, 8.84, 9.5, 10.11, 10.26, 10.73, 10.58, 10.34, 9.86, 8.63, 7.42, 7.81, 7.98, 8.44, 8.9, 8.77, 8.91, 9.33, 10.23, 10.28, 10.78, 10.99, 11.97, 13.84, 16.1, 14.9, 13.1, 10.91, 9.21, 8.32, 9.32, 10.38, 9.97, 9.3, 0.0, -7.59, -7.59, -7.59, -0.83, -0.83, -0.83, -0.83, 0.0, 0.0, 0.0, 0.0, 0.0, 0.0, 0.0, 0.0, 0.0, 0.0, 0.0, 0.0, 0.0, 0.0, 1.05, 1.17, 2.5, 2.72, 4.0, 3.58, 3.47, 3.47, 4.38, 4.74, 4.58, 4.43, 4.43, 4.28, 4.28, 4.12, 4.12, 4.48, 5.2, 5.2, 5.2, 5.0, 5.0, 4.62, 4.62, 5.14, 5.14, 5.14, 5.14, 5.9, 5.9, 5.9, 6.31, 6.53, 7.27, 7.31, 7.31, 7.95, 7.81, 7.81, 7.44, 7.48, 8.12, 8.42, 9.03, 9.64, 9.82, 9.83, 10.21, 10.01, 9.86, 9.33, 8.14, 7.37, 7.81, 7.81, 8.43, 8.89, 9.33, 9.32, 9.77, 10.23, 11.0, 10.92, 10.94, 11.91, 14.25, 14.54, 13.46, 11.54, 10.18, 10.01, 10.32, 10.84, 11.18, 11.18, 0.0, -7.59, -7.59, -7.59, -0.83, -0.83, -0.83, -0.83, 0.0, 0.0, 0.0, 0.0, 0.0, 0.0, 0.0, 0.0, 0.0, 0.0, 0.0, 0.0, 0.0, 0.0, 0.0, 1.05, 1.26, 2.72, 2.72, 2.72, 2.35, 3.36, 3.36, 4.38, 4.24, 4.1, 4.1, 4.28, 4.28, 4.12, 4.12, 4.99, 4.99, 4.81, 4.81, 4.62, 4.62, 4.62, 4.44, 5.14, 5.14, 5.14, 4.92, 5.29, 5.9, 5.9, 5.9, 6.53, 6.95, 6.95, 7.31, 7.27, 7.59, 7.81, 7.81, 7.72, 7.71, 7.93, 8.6, 8.77, 9.32, 9.39, 9.82, 9.57, 9.43, 8.96, 8.17, 7.85, 7.98, 7.97, 8.41, 8.49, 8.94, 9.39, 9.39, 10.23, 10.56, 10.92, 10.99, 11.42, 13.59, 14.12, 13.46, 11.95, 10.47, 11.76, 12.96, 3.98, 5.0, 3.53, -0.0, -0.0, -0.0, -0.0, -0.83, -0.83, -0.83, 0.0, 0.0, 0.0, 0.0, 0.0, 0.0, 0.0, 0.0, 0.0, 0.0, 0.0, 0.0, 0.0, 0.0, 0.0, 0.0, 0.0, 0.0, 1.26, 1.38, 1.34, 2.35, 2.28, 3.36, 4.24, 4.24, 4.1, 4.99, 4.81, 4.64, 4.64, 4.64, 4.64, 4.99, 4.81, 4.81, 4.81, 4.62, 4.62, 4.3, 4.13, 5.14, 5.14, 4.92, 4.92, 5.29, 5.9, 5.64, 6.14, 6.58, 6.58, 7.31, 6.98, 7.27, 7.23, 7.59, 7.72, 7.72, 7.6, 7.93, 8.74, 8.86, 9.39, 9.37, 9.23, 9.11, 8.96, 8.64, 7.89, 7.54, 8.94, 8.05, 8.49, 8.94, 9.39, 9.39, 9.83, 10.24, 10.78, 10.99, 10.85, 13.18, 13.99, 13.6, 12.5, 10.47, 11.6, 15.08, 4.24, 3.39, 2.19, -0.0, -0.0, -0.0, -0.0, -0.83, -0.83, -0.86, 0.0, 0.0, 0.0, 0.0, 0.0, 0.0, 0.0, 0.0, 0.0, 0.0, 0.0, 0.0, 0.0, 0.0, 0.0, 0.0, 0.0, 0.0, 0.0, 0.0, 1.34, 1.19, 2.28, 3.36, 3.02, 3.94, 3.81, 3.81, 4.49, 4.33, 4.33, 4.33, 4.47, 4.47, 4.47, 4.47, 4.3, 4.3, 4.3, 4.3, 4.13, 4.8, 5.14, 5.14, 4.92, 4.92, 5.9, 5.64, 6.14, 6.14, 6.58, 6.28, 6.98, 6.98, 6.65, 7.23, 7.23, 7.54, 7.6, 7.93, 8.17, 8.86, 8.92, 8.94, 9.32, 9.11, 9.11, 8.64, 7.87, 6.61, 8.49, 7.6, 8.05, 8.49, 9.39, 9.39, 9.83, 10.28, 10.52, 10.92, 10.56, 12.5, 14.19, 14.29, 12.79, 12.0, 11.94, 14.07, 7.2, 3.44, 3.53, 2.19, -0.0, -0.0, -0.0, -0.83, -0.83, -0.86, 0.0, 0.0, 0.0, 0.0, 0.0, 0.0, 0.0, 0.0, 0.0, 0.0, 0.0, 0.0, 0.0, 0.0, 0.0, 0.0, 0.0, 0.0, 0.0, 0.0, 1.34, 1.19, 2.28, 3.36, 3.02, 3.94, 3.81, 3.81, 4.49, 4.33, 4.33, 4.33, 4.47, 4.47, 4.47, 4.47, 4.3, 4.3, 4.3, 4.3, 4.13, 4.8, 5.14, 5.14, 4.92, 4.92, 5.9, 5.64, 6.14, 6.14, 6.58, 6.28, 6.98, 6.98, 6.65, 7.23, 7.23, 7.54, 7.6, 7.93, 8.17, 8.86, 8.92, 8.94, 9.32, 9.11, 9.11, 8.64, 7.87, 6.61, 8.49, 7.6, 8.05, 8.94, 9.39, 9.39, 9.83, 10.28, 10.68, 10.7, 10.99, 11.2, 13.2, 13.54, 13.16, 12.73, 11.94, 12.8, 16.99, 3.07, 2.19, 2.19, -0.0, -0.0, -0.0]}]